| time (UTC) | temp F | wind direction | speed MPH | gust MPH | rain 1hr in | rain 24hr in | rain mn in | humidity % | barometer mb |
| 20260906134701 | 83 | 222 | 2.0 | 3.0 | 0.00 | 0.00 | 0.00 | 76 | 1013.0 |
| 20260906134501 | 83 | 223 | 3.0 | 4.0 | 0.00 | 0.00 | 0.00 | 78 | 1012.9 |
| 20260906134401 | 83 | 189 | 1.0 | 2.0 | 0.00 | 0.00 | 0.00 | 78 | 1012.9 |
| 20260906134300 | 82 | 282 | 1.0 | 2.0 | 0.00 | 0.00 | 0.00 | 80 | 1012.9 |
| 20260906134200 | 82 | 193 | 0.0 | 3.0 | 0.00 | 0.00 | 0.00 | 79 | 1012.9 |
| 20260906134101 | 82 | 110 | 1.0 | 2.0 | 0.00 | 0.00 | 0.00 | 79 | 1012.9 |
| 20260906134000 | 82 | 235 | 2.0 | 3.0 | 0.00 | 0.00 | 0.00 | 80 | 1012.9 |
| 20260906133900 | 82 | 226 | 1.0 | 3.0 | 0.00 | 0.00 | 0.00 | 81 | 1012.9 |
| 20260906133800 | 81 | 210 | 1.0 | 2.0 | 0.00 | 0.00 | 0.00 | 81 | 1013.0 |
| 20260906133700 | 81 | 214 | 1.0 | 2.0 | 0.00 | 0.00 | 0.00 | 81 | 1013.0 |
| 20260906133301 | 81 | 224 | 0.0 | 3.0 | 0.00 | 0.00 | 0.00 | 84 | 1013.1 |
| 20260906133201 | 80 | 282 | 1.0 | 2.0 | 0.00 | 0.00 | 0.00 | 85 | 1013.1 |
| 20260906133001 | 80 | 236 | 3.0 | 3.0 | 0.00 | 0.00 | 0.00 | 84 | 1013.1 |
| 20260906132800 | 80 | 250 | 3.0 | 2.0 | 0.00 | 0.00 | 0.00 | 85 | 1013.1 |
| 20260906132700 | 80 | 320 | 2.0 | 3.0 | 0.00 | 0.00 | 0.00 | 86 | 1013.2 |
| 20260906132600 | 80 | 333 | 1.0 | 3.0 | 0.00 | 0.00 | 0.00 | 86 | 1013.2 |
| 20260906132500 | 80 | 268 | 3.0 | 3.0 | 0.00 | 0.00 | 0.00 | 86 | 1013.2 |
| 20260906132401 | 80 | 300 | 2.0 | 2.0 | 0.00 | 0.00 | 0.00 | 87 | 1013.2 |
| 20260906132201 | 80 | 287 | 0.0 | 3.0 | 0.00 | 0.00 | 0.00 | 87 | 1013.1 |
| 20260906132101 | 80 | 276 | 2.0 | 2.0 | 0.00 | 0.00 | 0.00 | 87 | 1013.1 |
| 20260906132001 | 80 | 177 | 0.0 | 2.0 | 0.00 | 0.00 | 0.00 | 87 | 1013.1 |
| 20260906131900 | 80 | 230 | 1.0 | 2.0 | 0.00 | 0.00 | 0.00 | 87 | 1013.1 |
| 20260906131401 | 79 | 233 | 2.0 | 3.0 | 0.00 | 0.00 | 0.00 | 87 | 1013.1 |
| 20260906131200 | 79 | 186 | 1.0 | 2.0 | 0.00 | 0.00 | 0.00 | 88 | 1013.2 |
| 20260906131100 | 78 | 150 | 2.0 | 2.0 | 0.00 | 0.00 | 0.00 | 89 | 1013.2 |
| 20260906131000 | 78 | 161 | 1.0 | 2.0 | 0.00 | 0.00 | 0.00 | 89 | 1013.3 |
| 20260906130700 | 77 | 147 | 1.0 | 1.0 | 0.00 | 0.00 | 0.00 | 93 | 1013.3 |
| 20260906130600 | 77 | 110 | 1.0 | 1.0 | 0.00 | 0.00 | 0.00 | 93 | 1013.3 |
| 20260906130500 | 77 | 124 | 0.0 | 2.0 | 0.00 | 0.00 | 0.00 | 94 | 1013.3 |
| 20260906130400 | 76 | 133 | 1.0 | 1.0 | 0.00 | 0.00 | 0.00 | 94 | 1013.3 |
| 20260906130300 | 76 | 270 | 0.0 | 1.0 | 0.00 | 0.00 | 0.00 | 94 | 1013.3 |
| 20260906130200 | 76 | 260 | 1.0 | 1.0 | 0.00 | 0.00 | 0.00 | 95 | 1013.3 |
| 20260906130100 | 76 | 258 | 0.0 | 0.0 | 0.00 | 0.00 | 0.00 | 95 | 1013.4 |
| 20260906130000 | 76 | 258 | 0.0 | 0.0 | 0.00 | 0.00 | 0.00 | 95 | 1013.4 |
| 20260906125800 | 76 | 283 | 0.0 | 1.0 | 0.00 | 0.00 | 0.00 | 96 | 1013.4 |
| 20260906125601 | 75 | 238 | 1.0 | 0.0 | 0.00 | 0.00 | 0.00 | 96 | 1013.4 |
| 20260906125500 | 75 | 217 | 0.0 | 1.0 | 0.00 | 0.00 | 0.00 | 96 | 1013.4 |
| 20260906125400 | 75 | 181 | 0.0 | 1.0 | 0.00 | 0.00 | 0.00 | 96 | 1013.5 |
| 20260906125301 | 75 | 181 | 1.0 | 2.0 | 0.00 | 0.00 | 0.00 | 96 | 1013.5 |
| 20260906125100 | 75 | 277 | 2.0 | 2.0 | 0.00 | 0.00 | 0.00 | 96 | 1013.5 |
| 20260906125000 | 75 | 303 | 2.0 | 2.0 | 0.00 | 0.00 | 0.00 | 97 | 1013.6 |
| 20260906124800 | 75 | 268 | 2.0 | 3.0 | 0.00 | 0.00 | 0.00 | 97 | 1013.6 |
| 20260906124700 | 75 | 280 | 3.0 | 2.0 | 0.00 | 0.00 | 0.00 | 97 | 1013.6 |
| 20260906124600 | 75 | 261 | 2.0 | 3.0 | 0.00 | 0.00 | 0.00 | 97 | 1013.6 |
| 20260906124500 | 75 | 261 | 4.0 | 3.0 | 0.00 | 0.00 | 0.00 | 97 | 1013.6 |
| 20260906124400 | 74 | 262 | 1.0 | 1.0 | 0.00 | 0.00 | 0.00 | 97 | 1013.6 |
| 20260906124300 | 74 | 302 | 0.0 | 1.0 | 0.00 | 0.00 | 0.00 | 98 | 1013.6 |
| 20260906124200 | 74 | 302 | 1.0 | 1.0 | 0.00 | 0.00 | 0.00 | 98 | 1013.6 |
| 20260906124001 | 74 | 281 | 1.0 | 1.0 | 0.00 | 0.00 | 0.00 | 98 | 1013.6 |
| 20260906123901 | 74 | 206 | 0.0 | 0.0 | 0.00 | 0.00 | 0.00 | 98 | 1013.6 |
| 20260906123801 | 74 | 206 | 0.0 | 0.0 | 0.00 | 0.00 | 0.00 | 98 | 1013.6 |
| 20260906123701 | 74 | 206 | 0.0 | 0.0 | 0.00 | 0.00 | 0.00 | 98 | 1013.6 |
| 20260906123501 | 74 | 206 | 0.0 | 0.0 | 0.00 | 0.00 | 0.00 | 98 | 1013.6 |
| 20260906123401 | 74 | 206 | 0.0 | 0.0 | 0.00 | 0.00 | 0.00 | 98 | 1013.6 |
| 20260906122901 | 74 | 242 | 0.0 | 1.0 | 0.00 | 0.00 | 0.00 | 98 | 1013.6 |
| 20260906122801 | 74 | 288 | 0.0 | 0.0 | 0.00 | 0.00 | 0.00 | 98 | 1013.6 |
| 20260906122701 | 74 | 288 | 0.0 | 1.0 | 0.00 | 0.00 | 0.00 | 98 | 1013.5 |
| 20260906122601 | 74 | 313 | 0.0 | 1.0 | 0.00 | 0.00 | 0.00 | 98 | 1013.5 |
| 20260906122500 | 74 | 311 | 1.0 | 1.0 | 0.00 | 0.00 | 0.00 | 98 | 1013.5 |
| 20260906122401 | 74 | 319 | 1.0 | 1.0 | 0.00 | 0.00 | 0.00 | 98 | 1013.5 |
| 20260906122301 | 74 | 353 | 1.0 | 2.0 | 0.00 | 0.00 | 0.00 | 98 | 1013.5 |
| 20260906122100 | 74 | 291 | 1.0 | 2.0 | 0.00 | 0.00 | 0.00 | 98 | 1013.5 |
| 20260906122000 | 74 | 272 | 1.0 | 1.0 | 0.00 | 0.00 | 0.00 | 98 | 1013.5 |
| 20260906121900 | 74 | 207 | 0.0 | 0.0 | 0.00 | 0.00 | 0.00 | 98 | 1013.5 |
| 20260906121800 | 74 | 207 | 0.0 | 1.0 | 0.00 | 0.00 | 0.00 | 97 | 1013.5 |
| 20260906121601 | 74 | 187 | 0.0 | 2.0 | 0.00 | 0.00 | 0.00 | 97 | 1013.5 |
| 20260906121500 | 74 | 212 | 2.0 | 2.0 | 0.00 | 0.00 | 0.00 | 97 | 1013.5 |
| 20260906121400 | 74 | 200 | 1.0 | 2.0 | 0.00 | 0.00 | 0.00 | 97 | 1013.5 |
| 20260906121300 | 74 | 197 | 1.0 | 1.0 | 0.00 | 0.00 | 0.00 | 97 | 1013.4 |
| 20260906121200 | 74 | 222 | 0.0 | 0.0 | 0.00 | 0.00 | 0.00 | 97 | 1013.4 |
| 20260906121101 | 74 | 222 | 0.0 | 2.0 | 0.00 | 0.00 | 0.00 | 97 | 1013.4 |
| 20260906121001 | 75 | 225 | 1.0 | 2.0 | 0.00 | 0.00 | 0.00 | 97 | 1013.4 |
| 20260906120901 | 75 | 224 | 2.0 | 2.0 | 0.00 | 0.00 | 0.00 | 97 | 1013.4 |
| 20260906120800 | 75 | 223 | 1.0 | 1.0 | 0.00 | 0.00 | 0.00 | 97 | 1013.3 |
| 20260906120701 | 75 | 235 | 1.0 | 1.0 | 0.00 | 0.00 | 0.00 | 97 | 1013.3 |
| 20260906120600 | 75 | 85 | 0.0 | 0.0 | 0.00 | 0.00 | 0.00 | 97 | 1013.3 |
| 20260906120500 | 75 | 85 | 0.0 | 0.0 | 0.00 | 0.00 | 0.00 | 97 | 1013.3 |
| 20260906120400 | 75 | 85 | 0.0 | 1.0 | 0.00 | 0.00 | 0.00 | 97 | 1013.3 |
| 20260906120301 | 75 | 47 | 0.0 | 1.0 | 0.00 | 0.00 | 0.00 | 97 | 1013.3 |
| 20260906120101 | 75 | 45 | 1.0 | 1.0 | 0.00 | 0.00 | 0.00 | 97 | 1013.3 |
| 20260906120000 | 74 | 24 | 1.0 | 2.0 | 0.00 | 0.00 | 0.00 | 97 | 1013.3 |
| 20260906115900 | 74 | 64 | 2.0 | 1.0 | 0.00 | 0.00 | 0.00 | 98 | 1013.3 |
| 20260906115800 | 74 | 49 | 1.0 | 2.0 | 0.00 | 0.00 | 0.00 | 98 | 1013.3 |
| 20260906115700 | 74 | 64 | 2.0 | 1.0 | 0.00 | 0.00 | 0.00 | 98 | 1013.3 |
| 20260906115300 | 74 | 130 | 0.0 | 1.0 | 0.00 | 0.00 | 0.00 | 98 | 1013.3 |
| 20260906115101 | 74 | 297 | 0.0 | 0.0 | 0.00 | 0.00 | 0.00 | 98 | 1013.3 |
| 20260906115000 | 74 | 297 | 0.0 | 0.0 | 0.00 | 0.00 | 0.00 | 98 | 1013.3 |
| 20260906114900 | 74 | 297 | 0.0 | 0.0 | 0.00 | 0.00 | 0.00 | 98 | 1013.3 |
| 20260906114800 | 74 | 297 | 0.0 | 0.0 | 0.00 | 0.00 | 0.00 | 98 | 1013.3 |
| 20260906114700 | 74 | 297 | 0.0 | 0.0 | 0.00 | 0.00 | 0.00 | 98 | 1013.3 |
| 20260906114601 | 74 | 297 | 0.0 | 0.0 | 0.00 | 0.00 | 0.00 | 98 | 1013.3 |
| 20260906114501 | 74 | 297 | 0.0 | 1.0 | 0.00 | 0.00 | 0.00 | 98 | 1013.3 |
| 20260906114400 | 74 | 112 | 0.0 | 0.0 | 0.00 | 0.00 | 0.00 | 98 | 1013.3 |
| 20260906114300 | 74 | 112 | 0.0 | 0.0 | 0.00 | 0.00 | 0.00 | 98 | 1013.3 |
| 20260906114200 | 74 | 112 | 0.0 | 0.0 | 0.00 | 0.00 | 0.00 | 98 | 1013.3 |
| 20260906114100 | 74 | 112 | 0.0 | 0.0 | 0.00 | 0.00 | 0.00 | 98 | 1013.3 |
| 20260906114000 | 74 | 112 | 0.0 | 1.0 | 0.00 | 0.00 | 0.00 | 98 | 1013.3 |
| 20260906113800 | 74 | 119 | 0.0 | 0.0 | 0.00 | 0.00 | 0.00 | 98 | 1013.3 |
| 20260906113700 | 74 | 119 | 0.0 | 0.0 | 0.00 | 0.00 | 0.00 | 98 | 1013.4 |
| 20260906113600 | 74 | 119 | 0.0 | 0.0 | 0.00 | 0.00 | 0.00 | 98 | 1013.4 |
| 20260906113501 | 74 | 119 | 0.0 | 0.0 | 0.00 | 0.00 | 0.00 | 98 | 1013.4 |
| 20260906113401 | 74 | 119 | 0.0 | 0.0 | 0.00 | 0.00 | 0.00 | 98 | 1013.4 |
| 20260906113301 | 74 | 119 | 0.0 | 0.0 | 0.00 | 0.00 | 0.00 | 98 | 1013.4 |
| 20260906113201 | 74 | 119 | 0.0 | 0.0 | 0.00 | 0.00 | 0.00 | 98 | 1013.4 |
| 20260906113101 | 74 | 119 | 0.0 | 0.0 | 0.00 | 0.00 | 0.00 | 98 | 1013.4 |
| 20260906112900 | 74 | 98 | 1.0 | 0.0 | 0.00 | 0.00 | 0.00 | 99 | 1013.4 |
| 20260906112800 | 74 | 88 | 0.0 | 0.0 | 0.00 | 0.00 | 0.00 | 99 | 1013.4 |
| 20260906112600 | 74 | 88 | 0.0 | 0.0 | 0.00 | 0.00 | 0.00 | 99 | 1013.4 |
| 20260906112500 | 74 | 335 | 0.0 | 0.0 | 0.00 | 0.00 | 0.00 | 99 | 1013.4 |
| 20260906112400 | 74 | 335 | 0.0 | 0.0 | 0.00 | 0.00 | 0.00 | 99 | 1013.4 |
| 20260906112300 | 74 | 335 | 0.0 | 0.0 | 0.00 | 0.00 | 0.00 | 99 | 1013.4 |
| 20260906112201 | 74 | 335 | 0.0 | 0.0 | 0.00 | 0.00 | 0.00 | 99 | 1013.3 |
| 20260906111801 | 74 | 217 | 0.0 | 0.0 | 0.00 | 0.00 | 0.00 | 99 | 1013.3 |
| 20260906111701 | 74 | 217 | 0.0 | 1.0 | 0.00 | 0.00 | 0.00 | 99 | 1013.4 |
| 20260906111601 | 74 | 217 | 1.0 | 1.0 | 0.00 | 0.00 | 0.00 | 99 | 1013.4 |
| 20260906111501 | 74 | 236 | 1.0 | 2.0 | 0.00 | 0.00 | 0.00 | 99 | 1013.4 |
| 20260906111400 | 74 | 258 | 1.0 | 1.0 | 0.00 | 0.00 | 0.00 | 99 | 1013.4 |
| 20260906111300 | 74 | 37 | 0.0 | 0.0 | 0.00 | 0.00 | 0.00 | 99 | 1013.4 |
| 20260906111100 | 74 | 37 | 0.0 | 0.0 | 0.00 | 0.00 | 0.00 | 99 | 1013.4 |
| 20260906111000 | 74 | 37 | 0.0 | 0.0 | 0.00 | 0.00 | 0.00 | 99 | 1013.4 |
| 20260906110900 | 74 | 37 | 0.0 | 0.0 | 0.00 | 0.00 | 0.00 | 99 | 1013.3 |
| 20260906110800 | 74 | 37 | 0.0 | 0.0 | 0.00 | 0.00 | 0.00 | 99 | 1013.3 |
| 20260906110700 | 74 | 37 | 0.0 | 0.0 | 0.00 | 0.00 | 0.00 | 99 | 1013.3 |
| 20260906110501 | 74 | 37 | 1.0 | 1.0 | 0.00 | 0.00 | 0.00 | 99 | 1013.4 |
| 20260906110201 | 74 | 42 | 0.0 | 0.0 | 0.00 | 0.00 | 0.00 | 99 | 1013.4 |
| 20260906110101 | 74 | 42 | 0.0 | 0.0 | 0.00 | 0.00 | 0.00 | 99 | 1013.4 |
| 20260906110000 | 74 | 42 | 0.0 | 0.0 | 0.00 | 0.00 | 0.00 | 99 | 1013.4 |
| 20260906105900 | 74 | 42 | 0.0 | 0.0 | 0.00 | 0.00 | 0.00 | 99 | 1013.4 |
| 20260906105701 | 74 | 42 | 0.0 | 0.0 | 0.00 | 0.00 | 0.00 | 99 | 1013.4 |
| 20260906105601 | 74 | 42 | 0.0 | 0.0 | 0.00 | 0.00 | 0.00 | 99 | 1013.4 |
| 20260906105501 | 74 | 42 | 0.0 | 0.0 | 0.00 | 0.00 | 0.00 | 99 | 1013.3 |
| 20260906105401 | 74 | 42 | 0.0 | 0.0 | 0.00 | 0.00 | 0.00 | 99 | 1013.3 |
| 20260906105201 | 74 | 42 | 0.0 | 0.0 | 0.00 | 0.00 | 0.00 | 99 | 1013.3 |
| 20260906105100 | 74 | 42 | 0.0 | 0.0 | 0.00 | 0.00 | 0.00 | 99 | 1013.3 |
| 20260906105001 | 74 | 42 | 0.0 | 2.0 | 0.00 | 0.00 | 0.00 | 99 | 1013.3 |
| 20260906104801 | 74 | 49 | 1.0 | 2.0 | 0.00 | 0.00 | 0.00 | 99 | 1013.2 |
| 20260906104701 | 74 | 57 | 1.0 | 1.0 | 0.00 | 0.00 | 0.00 | 99 | 1013.2 |
| 20260906104601 | 73 | 44 | 1.0 | 1.0 | 0.00 | 0.00 | 0.00 | 99 | 1013.1 |
| 20260906104500 | 73 | 44 | 1.0 | 1.0 | 0.00 | 0.00 | 0.00 | 99 | 1013.1 |
| 20260906104400 | 73 | 268 | 0.0 | 0.0 | 0.00 | 0.00 | 0.00 | 99 | 1013.1 |
| 20260906104301 | 73 | 268 | 0.0 | 0.0 | 0.00 | 0.00 | 0.00 | 99 | 1013.0 |
| 20260906104200 | 73 | 268 | 0.0 | 1.0 | 0.00 | 0.00 | 0.00 | 99 | 1013.0 |
| 20260906104100 | 73 | 224 | 0.0 | 0.0 | 0.00 | 0.00 | 0.00 | 99 | 1013.0 |
| 20260906103800 | 73 | 224 | 0.0 | 0.0 | 0.00 | 0.00 | 0.00 | 99 | 1012.9 |
| 20260906103700 | 73 | 224 | 0.0 | 1.0 | 0.00 | 0.00 | 0.00 | 99 | 1012.9 |
| 20260906103600 | 73 | 218 | 0.0 | 1.0 | 0.00 | 0.00 | 0.00 | 99 | 1012.9 |
| 20260906103500 | 73 | 241 | 1.0 | 1.0 | 0.00 | 0.00 | 0.00 | 99 | 1012.9 |
| 20260906103300 | 73 | 273 | 0.0 | 0.0 | 0.00 | 0.00 | 0.00 | 99 | 1012.9 |
| 20260906103200 | 73 | 273 | 0.0 | 0.0 | 0.00 | 0.00 | 0.00 | 99 | 1012.9 |
| 20260906103100 | 73 | 273 | 0.0 | 2.0 | 0.00 | 0.00 | 0.00 | 99 | 1012.9 |
| 20260906103000 | 73 | 270 | 2.0 | 1.0 | 0.00 | 0.00 | 0.00 | 99 | 1012.9 |
| 20260906102900 | 73 | 28 | 1.0 | 1.0 | 0.00 | 0.00 | 0.00 | 99 | 1012.9 |
| 20260906102801 | 73 | 164 | 0.0 | 0.0 | 0.00 | 0.00 | 0.00 | 99 | 1012.9 |
| 20260906102701 | 73 | 164 | 0.0 | 0.0 | 0.00 | 0.00 | 0.00 | 99 | 1012.9 |
| 20260906102601 | 73 | 164 | 0.0 | 0.0 | 0.00 | 0.00 | 0.00 | 99 | 1012.9 |
| 20260906102501 | 73 | 164 | 0.0 | 0.0 | 0.00 | 0.00 | 0.00 | 99 | 1012.9 |
| 20260906102400 | 73 | 164 | 0.0 | 0.0 | 0.00 | 0.00 | 0.00 | 99 | 1012.9 |
| 20260906102201 | 73 | 108 | 1.0 | 0.0 | 0.00 | 0.00 | 0.00 | 99 | 1012.9 |
| 20260906102100 | 73 | 21 | 0.0 | 1.0 | 0.00 | 0.00 | 0.00 | 99 | 1012.9 |
| 20260906102000 | 73 | 128 | 0.0 | 0.0 | 0.00 | 0.00 | 0.00 | 99 | 1012.9 |
| 20260906101900 | 73 | 128 | 0.0 | 0.0 | 0.00 | 0.00 | 0.00 | 99 | 1012.9 |
| 20260906101700 | 73 | 141 | 0.0 | 0.0 | 0.00 | 0.00 | 0.00 | 99 | 1012.9 |
| 20260906101600 | 73 | 184 | 0.0 | 0.0 | 0.00 | 0.00 | 0.00 | 99 | 1012.9 |
| 20260906101500 | 73 | 184 | 0.0 | 0.0 | 0.00 | 0.00 | 0.00 | 99 | 1012.9 |
| 20260906101300 | 73 | 184 | 0.0 | 0.0 | 0.00 | 0.00 | 0.00 | 99 | 1012.8 |
| 20260906101200 | 73 | 187 | 0.0 | 1.0 | 0.00 | 0.00 | 0.00 | 99 | 1012.8 |
| 20260906101001 | 73 | 1 | 0.0 | 0.0 | 0.00 | 0.00 | 0.00 | 99 | 1012.9 |
| 20260906100800 | 73 | 1 | 0.0 | 0.0 | 0.00 | 0.00 | 0.00 | 99 | 1012.9 |
| 20260906100700 | 73 | 1 | 0.0 | 0.0 | 0.00 | 0.00 | 0.00 | 99 | 1012.8 |
| 20260906100600 | 73 | 1 | 0.0 | 0.0 | 0.00 | 0.00 | 0.00 | 99 | 1012.8 |
| 20260906100500 | 73 | 1 | 0.0 | 1.0 | 0.00 | 0.00 | 0.00 | 99 | 1012.8 |
| 20260906100300 | 73 | 21 | 0.0 | 0.0 | 0.00 | 0.00 | 0.00 | 99 | 1012.7 |
| 20260906100200 | 73 | 319 | 0.0 | 0.0 | 0.00 | 0.00 | 0.00 | 99 | 1012.7 |
| 20260906100100 | 73 | 319 | 0.0 | 0.0 | 0.00 | 0.00 | 0.00 | 99 | 1012.7 |
| 20260906100001 | 73 | 319 | 0.0 | 1.0 | 0.00 | 0.00 | 0.00 | 99 | 1012.7 |
| 20260906095900 | 73 | 355 | 0.0 | 1.0 | 0.00 | 0.00 | 0.00 | 99 | 1012.7 |
| 20260906095801 | 73 | 292 | 1.0 | 1.0 | 0.00 | 0.00 | 0.00 | 99 | 1012.7 |
| 20260906095701 | 73 | 303 | 1.0 | 1.0 | 0.00 | 0.00 | 0.00 | 99 | 1012.8 |
| 20260906095501 | 73 | 259 | 0.0 | 0.0 | 0.00 | 0.00 | 0.00 | 99 | 1012.8 |
| 20260906095301 | 73 | 259 | 0.0 | 1.0 | 0.00 | 0.00 | 0.00 | 99 | 1012.7 |
| 20260906095000 | 73 | 224 | 0.0 | 0.0 | 0.00 | 0.00 | 0.00 | 99 | 1012.7 |
| 20260906094900 | 73 | 224 | 0.0 | 1.0 | 0.00 | 0.00 | 0.00 | 99 | 1012.6 |
| 20260906094800 | 73 | 211 | 0.0 | 1.0 | 0.00 | 0.00 | 0.00 | 99 | 1012.6 |
| 20260906094700 | 73 | 184 | 0.0 | 0.0 | 0.00 | 0.00 | 0.00 | 99 | 1012.6 |
| 20260906094600 | 73 | 184 | 0.0 | 1.0 | 0.00 | 0.00 | 0.00 | 99 | 1012.6 |
| 20260906094500 | 73 | 281 | 1.0 | 1.0 | 0.00 | 0.00 | 0.00 | 99 | 1012.6 |
| 20260906094400 | 73 | 323 | 0.0 | 1.0 | 0.00 | 0.00 | 0.00 | 99 | 1012.6 |
| 20260906094300 | 73 | 262 | 0.0 | 0.0 | 0.00 | 0.00 | 0.00 | 99 | 1012.6 |
| 20260906094200 | 73 | 262 | 0.0 | 0.0 | 0.00 | 0.00 | 0.00 | 99 | 1012.6 |
| 20260906094100 | 73 | 262 | 0.0 | 0.0 | 0.00 | 0.00 | 0.00 | 99 | 1012.6 |
| 20260906094000 | 73 | 262 | 0.0 | 0.0 | 0.00 | 0.00 | 0.00 | 99 | 1012.6 |
| 20260906093900 | 73 | 262 | 0.0 | 0.0 | 0.00 | 0.00 | 0.00 | 99 | 1012.6 |
| 20260906093800 | 73 | 262 | 0.0 | 1.0 | 0.00 | 0.00 | 0.00 | 99 | 1012.6 |
| 20260906093600 | 73 | 271 | 0.0 | 0.0 | 0.00 | 0.00 | 0.00 | 99 | 1012.6 |
| 20260906093400 | 73 | 271 | 1.0 | 0.0 | 0.00 | 0.00 | 0.00 | 99 | 1012.6 |
| 20260906093300 | 73 | 260 | 0.0 | 0.0 | 0.00 | 0.00 | 0.00 | 99 | 1012.6 |
| 20260906093100 | 73 | 240 | 0.0 | 1.0 | 0.00 | 0.00 | 0.00 | 99 | 1012.6 |
| 20260906093000 | 73 | 236 | 1.0 | 2.0 | 0.00 | 0.00 | 0.00 | 99 | 1012.7 |
| 20260906092901 | 73 | 245 | 1.0 | 2.0 | 0.00 | 0.00 | 0.00 | 99 | 1012.7 |
| 20260906092801 | 73 | 240 | 2.0 | 1.0 | 0.00 | 0.00 | 0.00 | 99 | 1012.7 |
| 20260906092701 | 73 | 256 | 1.0 | 1.0 | 0.00 | 0.00 | 0.00 | 99 | 1012.7 |
| 20260906092601 | 73 | 280 | 1.0 | 1.0 | 0.00 | 0.00 | 0.00 | 99 | 1012.7 |
| 20260906092500 | 73 | 270 | 1.0 | 2.0 | 0.00 | 0.00 | 0.00 | 99 | 1012.7 |
| 20260906092400 | 73 | 257 | 1.0 | 1.0 | 0.00 | 0.00 | 0.00 | 99 | 1012.7 |
| 20260906092300 | 73 | 358 | 0.0 | 0.0 | 0.00 | 0.00 | 0.00 | 99 | 1012.7 |
| 20260906092200 | 73 | 358 | 0.0 | 0.0 | 0.00 | 0.00 | 0.00 | 99 | 1012.7 |
| 20260906091900 | 73 | 358 | 0.0 | 0.0 | 0.00 | 0.00 | 0.00 | 99 | 1012.8 |
| 20260906091800 | 73 | 358 | 0.0 | 0.0 | 0.00 | 0.00 | 0.00 | 99 | 1012.8 |
| 20260906091700 | 73 | 358 | 0.0 | 0.0 | 0.00 | 0.00 | 0.00 | 99 | 1012.9 |
| 20260906091500 | 74 | 358 | 0.0 | 1.0 | 0.00 | 0.00 | 0.00 | 99 | 1012.9 |
| 20260906091400 | 74 | 246 | 0.0 | 0.0 | 0.00 | 0.00 | 0.00 | 99 | 1012.8 |
| 20260906091300 | 74 | 246 | 0.0 | 0.0 | 0.00 | 0.00 | 0.00 | 99 | 1012.8 |
| 20260906091101 | 74 | 246 | 0.0 | 0.0 | 0.00 | 0.00 | 0.00 | 99 | 1012.7 |
| 20260906090901 | 74 | 246 | 0.0 | 0.0 | 0.00 | 0.00 | 0.00 | 99 | 1012.7 |
| 20260906090800 | 74 | 246 | 0.0 | 1.0 | 0.00 | 0.00 | 0.00 | 99 | 1012.7 |
| 20260906090700 | 74 | 242 | 0.0 | 0.0 | 0.00 | 0.00 | 0.00 | 99 | 1012.7 |
| 20260906090600 | 74 | 242 | 0.0 | 0.0 | 0.00 | 0.00 | 0.00 | 99 | 1012.8 |
| 20260906090501 | 74 | 242 | 0.0 | 1.0 | 0.00 | 0.00 | 0.00 | 99 | 1012.8 |
| 20260906090400 | 74 | 249 | 0.0 | 0.0 | 0.00 | 0.00 | 0.00 | 99 | 1012.8 |
| 20260906090300 | 74 | 249 | 0.0 | 1.0 | 0.00 | 0.00 | 0.00 | 99 | 1012.8 |
| 20260906090200 | 74 | 271 | 0.0 | 0.0 | 0.00 | 0.00 | 0.00 | 99 | 1012.9 |
| 20260906090100 | 74 | 271 | 0.0 | 1.0 | 0.00 | 0.00 | 0.00 | 99 | 1012.9 |
| 20260906090000 | 74 | 354 | 0.0 | 1.0 | 0.00 | 0.00 | 0.00 | 99 | 1012.9 |
| 20260906085900 | 74 | 350 | 1.0 | 1.0 | 0.00 | 0.00 | 0.00 | 99 | 1012.9 |
| 20260906085801 | 74 | 325 | 1.0 | 2.0 | 0.00 | 0.00 | 0.00 | 99 | 1012.9 |
| 20260906085700 | 74 | 292 | 1.0 | 1.0 | 0.00 | 0.00 | 0.00 | 99 | 1012.8 |
| 20260906085600 | 74 | 246 | 0.0 | 0.0 | 0.00 | 0.00 | 0.00 | 99 | 1012.8 |
| 20260906085500 | 74 | 246 | 0.0 | 1.0 | 0.00 | 0.00 | 0.00 | 99 | 1012.8 |
| 20260906085400 | 74 | 253 | 1.0 | 0.0 | 0.00 | 0.00 | 0.00 | 99 | 1012.8 |
| 20260906085300 | 74 | 214 | 0.0 | 0.0 | 0.00 | 0.00 | 0.00 | 99 | 1012.8 |
| 20260906085200 | 74 | 55 | 0.0 | 0.0 | 0.00 | 0.00 | 0.00 | 99 | 1012.8 |
| 20260906085100 | 74 | 55 | 0.0 | 0.0 | 0.00 | 0.00 | 0.00 | 99 | 1012.8 |
| 20260906085001 | 74 | 55 | 0.0 | 1.0 | 0.00 | 0.00 | 0.00 | 99 | 1012.8 |
| 20260906084900 | 74 | 31 | 0.0 | 0.0 | 0.00 | 0.00 | 0.00 | 99 | 1012.8 |
| 20260906084800 | 74 | 31 | 0.0 | 1.0 | 0.00 | 0.00 | 0.00 | 99 | 1012.8 |
| 20260906084700 | 74 | 31 | 1.0 | 1.0 | 0.00 | 0.00 | 0.00 | 99 | 1012.7 |
| 20260906084600 | 74 | 342 | 1.0 | 2.0 | 0.00 | 0.00 | 0.00 | 99 | 1012.7 |
| 20260906084500 | 74 | 335 | 1.0 | 1.0 | 0.00 | 0.00 | 0.00 | 99 | 1012.7 |
| 20260906084400 | 74 | 318 | 0.0 | 0.0 | 0.00 | 0.00 | 0.00 | 99 | 1012.7 |
| 20260906084301 | 74 | 318 | 0.0 | 0.0 | 0.00 | 0.00 | 0.00 | 99 | 1012.7 |
| 20260906084200 | 74 | 318 | 0.0 | 0.0 | 0.00 | 0.00 | 0.00 | 99 | 1012.7 |
| 20260906084101 | 74 | 318 | 0.0 | 1.0 | 0.00 | 0.00 | 0.00 | 99 | 1012.7 |
| 20260906084001 | 74 | 309 | 0.0 | 1.0 | 0.00 | 0.00 | 0.00 | 99 | 1012.6 |
| 20260906083900 | 74 | 5 | 0.0 | 2.0 | 0.00 | 0.00 | 0.00 | 99 | 1012.6 |
| 20260906083800 | 74 | 349 | 2.0 | 2.0 | 0.00 | 0.00 | 0.00 | 99 | 1012.6 |
| 20260906083700 | 74 | 2 | 2.0 | 2.0 | 0.00 | 0.00 | 0.00 | 99 | 1012.6 |
| 20260906083600 | 74 | 1 | 1.0 | 2.0 | 0.00 | 0.00 | 0.00 | 99 | 1012.6 |
| 20260906083501 | 74 | 11 | 2.0 | 2.0 | 0.00 | 0.00 | 0.00 | 99 | 1012.7 |
| 20260906083401 | 74 | 1 | 2.0 | 2.0 | 0.00 | 0.00 | 0.00 | 99 | 1012.7 |
| 20260906083301 | 74 | 20 | 1.0 | 2.0 | 0.00 | 0.00 | 0.00 | 99 | 1012.7 |
| 20260906083200 | 74 | 352 | 2.0 | 1.0 | 0.00 | 0.00 | 0.00 | 99 | 1012.7 |
| 20260906083101 | 74 | 19 | 0.0 | 1.0 | 0.00 | 0.00 | 0.00 | 99 | 1012.7 |
| 20260906083001 | 74 | 79 | 0.0 | 0.0 | 0.00 | 0.00 | 0.00 | 99 | 1012.7 |
| 20260906082901 | 74 | 79 | 0.0 | 1.0 | 0.00 | 0.00 | 0.00 | 99 | 1012.7 |
| 20260906082801 | 74 | 96 | 0.0 | 1.0 | 0.00 | 0.00 | 0.00 | 99 | 1012.7 |
| 20260906082701 | 74 | 96 | 1.0 | 1.0 | 0.00 | 0.00 | 0.00 | 99 | 1012.7 |
| 20260906082601 | 74 | 168 | 0.0 | 1.0 | 0.00 | 0.00 | 0.00 | 99 | 1012.7 |
| 20260906082501 | 74 | 190 | 1.0 | 1.0 | 0.00 | 0.00 | 0.00 | 99 | 1012.6 |
| 20260906082400 | 74 | 359 | 0.0 | 0.0 | 0.00 | 0.00 | 0.00 | 99 | 1012.6 |
| 20260906082200 | 74 | 359 | 0.0 | 0.0 | 0.00 | 0.00 | 0.00 | 99 | 1012.5 |
| 20260906082100 | 74 | 359 | 0.0 | 0.0 | 0.00 | 0.00 | 0.00 | 99 | 1012.5 |
| 20260906082000 | 74 | 359 | 0.0 | 1.0 | 0.00 | 0.00 | 0.00 | 99 | 1012.4 |
| 20260906081801 | 74 | 200 | 0.0 | 0.0 | 0.00 | 0.00 | 0.00 | 99 | 1012.4 |
| 20260906081701 | 74 | 200 | 0.0 | 0.0 | 0.00 | 0.00 | 0.00 | 99 | 1012.4 |
| 20260906081601 | 74 | 200 | 0.0 | 0.0 | 0.00 | 0.00 | 0.00 | 99 | 1012.4 |
| 20260906081501 | 74 | 200 | 0.0 | 0.0 | 0.00 | 0.00 | 0.00 | 99 | 1012.4 |
| 20260906081400 | 74 | 200 | 0.0 | 0.0 | 0.00 | 0.00 | 0.00 | 99 | 1012.4 |
| 20260906081300 | 74 | 200 | 0.0 | 0.0 | 0.00 | 0.00 | 0.00 | 99 | 1012.4 |
| 20260906081201 | 74 | 200 | 0.0 | 0.0 | 0.00 | 0.00 | 0.00 | 99 | 1012.4 |
| 20260906081100 | 74 | 200 | 0.0 | 0.0 | 0.00 | 0.00 | 0.00 | 99 | 1012.4 |
| 20260906081000 | 74 | 200 | 0.0 | 0.0 | 0.00 | 0.00 | 0.00 | 99 | 1012.4 |
| 20260906080900 | 74 | 200 | 0.0 | 0.0 | 0.00 | 0.00 | 0.00 | 99 | 1012.4 |
| 20260906080800 | 74 | 200 | 0.0 | 0.0 | 0.00 | 0.00 | 0.00 | 99 | 1012.4 |
| 20260906080700 | 74 | 200 | 0.0 | 0.0 | 0.00 | 0.00 | 0.00 | 99 | 1012.5 |
| 20260906080601 | 74 | 200 | 0.0 | 0.0 | 0.00 | 0.00 | 0.00 | 99 | 1012.5 |
| 20260906080500 | 74 | 200 | 0.0 | 1.0 | 0.00 | 0.00 | 0.00 | 99 | 1012.5 |
| 20260906080400 | 74 | 205 | 0.0 | 0.0 | 0.00 | 0.00 | 0.00 | 99 | 1012.6 |
| 20260906080300 | 74 | 205 | 0.0 | 0.0 | 0.00 | 0.00 | 0.00 | 99 | 1012.6 |
| 20260906080200 | 74 | 205 | 0.0 | 0.0 | 0.00 | 0.00 | 0.00 | 99 | 1012.6 |
| 20260906080100 | 74 | 205 | 0.0 | 0.0 | 0.00 | 0.00 | 0.00 | 99 | 1012.6 |
| 20260906080001 | 74 | 205 | 0.0 | 0.0 | 0.00 | 0.00 | 0.00 | 99 | 1012.6 |
| 20260906075901 | 74 | 205 | 0.0 | 0.0 | 0.00 | 0.00 | 0.00 | 99 | 1012.6 |
| 20260906075801 | 74 | 41 | 0.0 | 0.0 | 0.00 | 0.00 | 0.00 | 99 | 1012.7 |
| 20260906075701 | 74 | 41 | 0.0 | 0.0 | 0.00 | 0.00 | 0.00 | 99 | 1012.7 |
| 20260906075601 | 74 | 41 | 0.0 | 1.0 | 0.00 | 0.00 | 0.00 | 99 | 1012.8 |
| 20260906075500 | 74 | 51 | 0.0 | 0.0 | 0.00 | 0.00 | 0.00 | 99 | 1012.8 |
| 20260906075400 | 74 | 51 | 0.0 | 0.0 | 0.00 | 0.00 | 0.00 | 99 | 1012.8 |
| 20260906075101 | 74 | 19 | 2.0 | 1.0 | 0.00 | 0.00 | 0.00 | 99 | 1012.9 |
| 20260906074900 | 74 | 34 | 0.0 | 2.0 | 0.00 | 0.00 | 0.00 | 99 | 1012.9 |
| 20260906074800 | 74 | 344 | 0.0 | 1.0 | 0.00 | 0.00 | 0.00 | 99 | 1012.9 |
| 20260906074501 | 74 | 61 | 1.0 | 2.0 | 0.00 | 0.00 | 0.00 | 99 | 1012.8 |
| 20260906074301 | 74 | 13 | 0.0 | 2.0 | 0.00 | 0.00 | 0.00 | 99 | 1012.9 |
| 20260906074201 | 74 | 40 | 1.0 | 3.0 | 0.00 | 0.00 | 0.00 | 99 | 1012.9 |
| 20260906074101 | 74 | 24 | 1.0 | 1.0 | 0.00 | 0.00 | 0.00 | 99 | 1012.8 |
| 20260906074000 | 74 | 17 | 0.0 | 1.0 | 0.00 | 0.00 | 0.00 | 99 | 1012.8 |
| 20260906073901 | 74 | 15 | 1.0 | 1.0 | 0.00 | 0.00 | 0.00 | 99 | 1012.8 |
| 20260906073800 | 74 | 24 | 1.0 | 1.0 | 0.00 | 0.00 | 0.00 | 99 | 1012.8 |
| 20260906073600 | 74 | 59 | 1.0 | 2.0 | 0.00 | 0.00 | 0.00 | 99 | 1012.7 |
| 20260906073300 | 74 | 7 | 0.0 | 0.0 | 0.00 | 0.00 | 0.00 | 99 | 1012.7 |
| 20260906073100 | 74 | 5 | 0.0 | 1.0 | 0.00 | 0.00 | 0.00 | 99 | 1012.7 |
| 20260906072700 | 74 | 307 | 0.0 | 1.0 | 0.00 | 0.00 | 0.00 | 98 | 1012.5 |
| 20260906072600 | 74 | 292 | 1.0 | 2.0 | 0.00 | 0.00 | 0.00 | 98 | 1012.4 |
| 20260906072500 | 74 | 286 | 0.0 | 2.0 | 0.00 | 0.00 | 0.00 | 98 | 1012.4 |
| 20260906072400 | 74 | 278 | 2.0 | 2.0 | 0.00 | 0.00 | 0.00 | 98 | 1012.4 |
| 20260906072301 | 74 | 264 | 2.0 | 2.0 | 0.00 | 0.00 | 0.00 | 98 | 1012.4 |
| 20260906072200 | 74 | 249 | 2.0 | 2.0 | 0.00 | 0.00 | 0.00 | 98 | 1012.3 |
| 20260906072000 | 74 | 284 | 1.0 | 1.0 | 0.00 | 0.00 | 0.00 | 98 | 1012.3 |
| 20260906071600 | 74 | 110 | 0.0 | 1.0 | 0.00 | 0.00 | 0.00 | 98 | 1012.4 |
| 20260906071400 | 74 | 326 | 0.0 | 0.0 | 0.00 | 0.00 | 0.00 | 98 | 1012.4 |
| 20260906071300 | 74 | 326 | 0.0 | 0.0 | 0.00 | 0.00 | 0.00 | 98 | 1012.4 |
| 20260906070701 | 74 | 99 | 0.0 | 0.0 | 0.00 | 0.00 | 0.00 | 98 | 1012.3 |
| 20260906070600 | 74 | 99 | 0.0 | 0.0 | 0.00 | 0.00 | 0.00 | 98 | 1012.3 |
| 20260906070501 | 74 | 99 | 0.0 | 0.0 | 0.00 | 0.00 | 0.00 | 98 | 1012.3 |
| 20260906070400 | 74 | 99 | 0.0 | 0.0 | 0.00 | 0.00 | 0.00 | 98 | 1012.3 |
| 20260906070301 | 74 | 99 | 0.0 | 2.0 | 0.00 | 0.00 | 0.00 | 98 | 1012.2 |
| 20260906070200 | 74 | 101 | 1.0 | 2.0 | 0.00 | 0.00 | 0.00 | 98 | 1012.2 |
| 20260906070101 | 74 | 103 | 1.0 | 2.0 | 0.00 | 0.00 | 0.00 | 98 | 1012.2 |
| 20260906065900 | 74 | 57 | 0.0 | 1.0 | 0.00 | 0.00 | 0.00 | 98 | 1012.1 |
| 20260906065700 | 74 | 274 | 0.0 | 2.0 | 0.00 | 0.00 | 0.00 | 98 | 1012.1 |
| 20260906065600 | 74 | 265 | 2.0 | 1.0 | 0.00 | 0.00 | 0.00 | 98 | 1012.1 |
| 20260906065500 | 74 | 296 | 0.0 | 1.0 | 0.00 | 0.00 | 0.00 | 98 | 1012.1 |
| 20260906065400 | 74 | 293 | 0.0 | 1.0 | 0.00 | 0.00 | 0.00 | 98 | 1012.1 |
| 20260906065300 | 74 | 358 | 0.0 | 1.0 | 0.00 | 0.00 | 0.00 | 98 | 1012.2 |
| 20260906065000 | 75 | 52 | 1.0 | 2.0 | 0.00 | 0.00 | 0.00 | 98 | 1012.3 |
| 20260906064900 | 75 | 38 | 1.0 | 2.0 | 0.00 | 0.00 | 0.00 | 98 | 1012.4 |
| 20260906064800 | 75 | 33 | 1.0 | 0.0 | 0.00 | 0.00 | 0.00 | 98 | 1012.4 |
| 20260906064700 | 75 | 127 | 0.0 | 0.0 | 0.00 | 0.00 | 0.00 | 98 | 1012.4 |
| 20260906064601 | 75 | 127 | 0.0 | 0.0 | 0.00 | 0.00 | 0.00 | 98 | 1012.4 |
| 20260906064500 | 75 | 127 | 0.0 | 2.0 | 0.00 | 0.00 | 0.00 | 98 | 1012.4 |
| 20260906064300 | 75 | 101 | 2.0 | 1.0 | 0.00 | 0.00 | 0.00 | 98 | 1012.4 |
| 20260906064201 | 75 | 84 | 1.0 | 0.0 | 0.00 | 0.00 | 0.00 | 98 | 1012.4 |
| 20260906064101 | 75 | 45 | 0.0 | 0.0 | 0.00 | 0.00 | 0.00 | 98 | 1012.4 |
| 20260906063901 | 75 | 333 | 0.0 | 1.0 | 0.00 | 0.00 | 0.00 | 98 | 1012.4 |
| 20260906063800 | 75 | 321 | 0.0 | 1.0 | 0.00 | 0.00 | 0.00 | 98 | 1012.4 |
| 20260906063401 | 75 | 237 | 0.0 | 1.0 | 0.00 | 0.00 | 0.00 | 98 | 1012.4 |
| 20260906063200 | 75 | 127 | 0.0 | 1.0 | 0.00 | 0.00 | 0.00 | 98 | 1012.4 |
| 20260906063100 | 75 | 125 | 1.0 | 1.0 | 0.00 | 0.00 | 0.00 | 98 | 1012.4 |
| 20260906063000 | 75 | 87 | 0.0 | 1.0 | 0.00 | 0.00 | 0.00 | 98 | 1012.4 |
| 20260906062900 | 75 | 96 | 0.0 | 2.0 | 0.00 | 0.00 | 0.00 | 98 | 1012.5 |
| 20260906062800 | 75 | 110 | 1.0 | 1.0 | 0.00 | 0.00 | 0.00 | 98 | 1012.5 |
| 20260906062701 | 75 | 252 | 0.0 | 0.0 | 0.00 | 0.00 | 0.00 | 98 | 1012.5 |
| 20260906062601 | 75 | 252 | 0.0 | 0.0 | 0.00 | 0.00 | 0.00 | 98 | 1012.5 |
| 20260906062500 | 75 | 252 | 0.0 | 1.0 | 0.00 | 0.00 | 0.00 | 98 | 1012.5 |
| 20260906062400 | 75 | 252 | 1.0 | 2.0 | 0.00 | 0.00 | 0.00 | 98 | 1012.5 |
| 20260906062300 | 75 | 260 | 2.0 | 2.0 | 0.00 | 0.00 | 0.00 | 98 | 1012.5 |
| 20260906062201 | 75 | 264 | 2.0 | 1.0 | 0.00 | 0.00 | 0.00 | 98 | 1012.5 |
| 20260906062101 | 75 | 231 | 2.0 | 1.0 | 0.00 | 0.00 | 0.00 | 98 | 1012.5 |
| 20260906062001 | 75 | 243 | 1.0 | 1.0 | 0.00 | 0.00 | 0.00 | 98 | 1012.6 |
| 20260906061900 | 75 | 142 | 0.0 | 1.0 | 0.00 | 0.00 | 0.00 | 98 | 1012.6 |
| 20260906061801 | 75 | 106 | 0.0 | 1.0 | 0.00 | 0.00 | 0.00 | 98 | 1012.6 |
| 20260906061701 | 75 | 122 | 1.0 | 1.0 | 0.00 | 0.00 | 0.00 | 98 | 1012.7 |
| 20260906061600 | 75 | 298 | 0.0 | 0.0 | 0.00 | 0.00 | 0.00 | 98 | 1012.7 |
| 20260906061500 | 75 | 298 | 0.0 | 1.0 | 0.00 | 0.00 | 0.00 | 98 | 1012.7 |
| 20260906061400 | 75 | 151 | 1.0 | 0.0 | 0.00 | 0.00 | 0.00 | 98 | 1012.7 |
| 20260906061300 | 75 | 285 | 0.0 | 0.0 | 0.00 | 0.00 | 0.00 | 98 | 1012.7 |
| 20260906061200 | 75 | 285 | 0.0 | 1.0 | 0.00 | 0.00 | 0.00 | 98 | 1012.7 |
| 20260906061101 | 75 | 313 | 0.0 | 1.0 | 0.00 | 0.00 | 0.00 | 98 | 1012.7 |
| 20260906061000 | 75 | 313 | 1.0 | 1.0 | 0.00 | 0.00 | 0.00 | 98 | 1012.7 |
| 20260906060900 | 75 | 315 | 0.0 | 1.0 | 0.00 | 0.00 | 0.00 | 98 | 1012.7 |
| 20260906060800 | 75 | 213 | 0.0 | 0.0 | 0.00 | 0.00 | 0.00 | 98 | 1012.8 |
| 20260906060700 | 75 | 213 | 0.0 | 0.0 | 0.00 | 0.00 | 0.00 | 98 | 1012.8 |
| 20260906060601 | 75 | 213 | 0.0 | 0.0 | 0.00 | 0.00 | 0.00 | 98 | 1012.8 |
| 20260906060500 | 75 | 213 | 0.0 | 0.0 | 0.00 | 0.00 | 0.00 | 98 | 1012.8 |
| 20260906060400 | 75 | 213 | 0.0 | 0.0 | 0.00 | 0.00 | 0.00 | 98 | 1012.8 |
| 20260906060300 | 75 | 213 | 0.0 | 0.0 | 0.00 | 0.00 | 0.00 | 98 | 1012.8 |
| 20260906060200 | 75 | 213 | 0.0 | 0.0 | 0.00 | 0.00 | 0.00 | 98 | 1012.8 |
| 20260906060100 | 75 | 213 | 0.0 | 0.0 | 0.00 | 0.00 | 0.00 | 98 | 1012.8 |
| 20260906060001 | 75 | 213 | 0.0 | 1.0 | 0.00 | 0.00 | 0.00 | 98 | 1012.8 |
| 20260906055900 | 75 | 268 | 1.0 | 1.0 | 0.00 | 0.00 | 0.00 | 98 | 1012.9 |
| 20260906055700 | 75 | 307 | 0.0 | 0.0 | 0.00 | 0.00 | 0.00 | 98 | 1012.9 |
| 20260906055600 | 75 | 307 | 0.0 | 1.0 | 0.00 | 0.00 | 0.00 | 98 | 1013.0 |
| 20260906055500 | 75 | 305 | 0.0 | 1.0 | 0.00 | 0.00 | 0.00 | 98 | 1013.0 |
| 20260906055400 | 75 | 252 | 0.0 | 0.0 | 0.00 | 0.00 | 0.00 | 98 | 1013.0 |
| 20260906055300 | 75 | 252 | 0.0 | 0.0 | 0.00 | 0.00 | 0.00 | 98 | 1013.0 |
| 20260906055200 | 75 | 252 | 0.0 | 0.0 | 0.00 | 0.00 | 0.00 | 98 | 1013.0 |
| 20260906055100 | 75 | 279 | 0.0 | 1.0 | 0.00 | 0.00 | 0.00 | 98 | 1013.1 |
| 20260906055000 | 75 | 279 | 1.0 | 0.0 | 0.00 | 0.00 | 0.00 | 98 | 1013.1 |
| 20260906054900 | 75 | 4 | 0.0 | 0.0 | 0.00 | 0.00 | 0.00 | 98 | 1013.1 |
| 20260906054800 | 75 | 4 | 0.0 | 0.0 | 0.00 | 0.00 | 0.00 | 98 | 1013.1 |
| 20260906054701 | 75 | 4 | 0.0 | 0.0 | 0.00 | 0.00 | 0.00 | 98 | 1013.1 |
| 20260906054601 | 75 | 4 | 0.0 | 0.0 | 0.00 | 0.00 | 0.00 | 98 | 1013.1 |
| 20260906054500 | 75 | 4 | 0.0 | 0.0 | 0.00 | 0.00 | 0.00 | 98 | 1013.1 |
| 20260906054400 | 75 | 4 | 0.0 | 0.0 | 0.00 | 0.00 | 0.00 | 98 | 1013.2 |
| 20260906054300 | 75 | 4 | 0.0 | 2.0 | 0.00 | 0.00 | 0.00 | 98 | 1013.2 |
| 20260906054200 | 75 | 9 | 2.0 | 3.0 | 0.00 | 0.00 | 0.00 | 98 | 1013.2 |
| 20260906054100 | 75 | 23 | 3.0 | 3.0 | 0.00 | 0.00 | 0.00 | 98 | 1013.2 |
| 20260906053900 | 75 | 19 | 3.0 | 3.0 | 0.00 | 0.00 | 0.00 | 98 | 1013.2 |
| 20260906053800 | 75 | 26 | 2.0 | 2.0 | 0.00 | 0.00 | 0.00 | 98 | 1013.1 |
| 20260906053700 | 75 | 30 | 2.0 | 1.0 | 0.00 | 0.00 | 0.00 | 98 | 1013.1 |
| 20260906053600 | 75 | 12 | 1.0 | 1.0 | 0.00 | 0.00 | 0.00 | 98 | 1013.1 |
| 20260906053500 | 75 | 343 | 0.0 | 0.0 | 0.00 | 0.00 | 0.00 | 98 | 1013.1 |
| 20260906053400 | 75 | 343 | 0.0 | 1.0 | 0.00 | 0.00 | 0.00 | 98 | 1013.1 |
| 20260906053001 | 75 | 136 | 0.0 | 0.0 | 0.00 | 0.00 | 0.00 | 98 | 1013.2 |
| 20260906052901 | 75 | 136 | 0.0 | 0.0 | 0.00 | 0.00 | 0.00 | 98 | 1013.2 |
| 20260906052601 | 75 | 125 | 1.0 | 1.0 | 0.00 | 0.00 | 0.00 | 98 | 1013.2 |
| 20260906052501 | 75 | 81 | 1.0 | 1.0 | 0.00 | 0.00 | 0.00 | 98 | 1013.2 |
| 20260906052400 | 75 | 49 | 1.0 | 2.0 | 0.00 | 0.00 | 0.00 | 98 | 1013.2 |
| 20260906052300 | 75 | 56 | 1.0 | 2.0 | 0.00 | 0.00 | 0.00 | 98 | 1013.2 |
| 20260906052200 | 75 | 62 | 1.0 | 2.0 | 0.00 | 0.00 | 0.00 | 98 | 1013.3 |
| 20260906052000 | 75 | 46 | 2.0 | 2.0 | 0.00 | 0.00 | 0.00 | 98 | 1013.3 |
| 20260906051900 | 75 | 51 | 2.0 | 2.0 | 0.00 | 0.00 | 0.00 | 98 | 1013.3 |
| 20260906051800 | 75 | 41 | 2.0 | 1.0 | 0.00 | 0.00 | 0.00 | 98 | 1013.3 |
| 20260906051700 | 75 | 38 | 1.0 | 1.0 | 0.00 | 0.00 | 0.00 | 98 | 1013.3 |
| 20260906051600 | 75 | 51 | 1.0 | 0.0 | 0.00 | 0.00 | 0.00 | 98 | 1013.3 |
| 20260906051500 | 75 | 160 | 0.0 | 0.0 | 0.00 | 0.00 | 0.00 | 98 | 1013.3 |
| 20260906051400 | 75 | 160 | 0.0 | 0.0 | 0.00 | 0.00 | 0.00 | 98 | 1013.3 |
| 20260906051300 | 75 | 160 | 0.0 | 0.0 | 0.00 | 0.00 | 0.00 | 98 | 1013.2 |
| 20260906051200 | 75 | 160 | 0.0 | 0.0 | 0.00 | 0.00 | 0.00 | 98 | 1013.2 |
| 20260906051100 | 75 | 160 | 0.0 | 1.0 | 0.00 | 0.00 | 0.00 | 98 | 1013.2 |
| 20260906050801 | 75 | 236 | 0.0 | 2.0 | 0.00 | 0.00 | 0.00 | 98 | 1013.2 |
| 20260906050601 | 75 | 251 | 2.0 | 2.0 | 0.00 | 0.00 | 0.00 | 98 | 1013.1 |
| 20260906050501 | 75 | 255 | 2.0 | 2.0 | 0.00 | 0.00 | 0.00 | 98 | 1013.1 |
| 20260906050101 | 75 | 161 | 0.0 | 0.0 | 0.00 | 0.00 | 0.00 | 97 | 1013.2 |
| 20260906050001 | 75 | 161 | 0.0 | 1.0 | 0.00 | 0.00 | 0.00 | 97 | 1013.2 |
| 20260906045901 | 75 | 12 | 0.0 | 0.0 | 0.00 | 0.00 | 0.00 | 97 | 1013.2 |
| 20260906045801 | 75 | 12 | 0.0 | 0.0 | 0.00 | 0.00 | 0.00 | 97 | 1013.2 |
| 20260906045701 | 75 | 12 | 0.0 | 1.0 | 0.00 | 0.00 | 0.00 | 97 | 1013.2 |
| 20260906045501 | 75 | 347 | 0.0 | 0.0 | 0.00 | 0.00 | 0.00 | 97 | 1013.2 |
| 20260906045401 | 75 | 25 | 0.0 | 0.0 | 0.00 | 0.00 | 0.00 | 97 | 1013.2 |
| 20260906045300 | 75 | 25 | 0.0 | 2.0 | 0.00 | 0.00 | 0.00 | 97 | 1013.2 |
| 20260906045200 | 75 | 52 | 2.0 | 2.0 | 0.00 | 0.00 | 0.00 | 97 | 1013.2 |
| 20260906045100 | 75 | 48 | 1.0 | 2.0 | 0.00 | 0.00 | 0.00 | 97 | 1013.3 |
| 20260906045000 | 75 | 49 | 1.0 | 2.0 | 0.00 | 0.00 | 0.00 | 97 | 1013.3 |
| 20260906044900 | 75 | 40 | 2.0 | 2.0 | 0.00 | 0.00 | 0.00 | 97 | 1013.3 |
| 20260906044800 | 75 | 31 | 1.0 | 1.0 | 0.00 | 0.00 | 0.00 | 97 | 1013.2 |
| 20260906044600 | 75 | 10 | 1.0 | 1.0 | 0.00 | 0.00 | 0.00 | 97 | 1013.1 |
| 20260906044500 | 75 | 334 | 0.0 | 0.0 | 0.00 | 0.00 | 0.00 | 97 | 1013.1 |
| 20260906044301 | 75 | 334 | 0.0 | 0.0 | 0.00 | 0.00 | 0.00 | 97 | 1013.1 |
| 20260906044200 | 75 | 334 | 0.0 | 0.0 | 0.00 | 0.00 | 0.00 | 97 | 1013.1 |
| 20260906044101 | 75 | 334 | 0.0 | 0.0 | 0.00 | 0.00 | 0.00 | 97 | 1013.1 |
| 20260906044000 | 75 | 334 | 0.0 | 0.0 | 0.00 | 0.00 | 0.00 | 97 | 1013.1 |
| 20260906043800 | 75 | 334 | 0.0 | 0.0 | 0.00 | 0.00 | 0.00 | 97 | 1013.2 |
| 20260906043600 | 75 | 334 | 0.0 | 0.0 | 0.00 | 0.00 | 0.00 | 97 | 1013.2 |
| 20260906043500 | 75 | 357 | 0.0 | 0.0 | 0.00 | 0.00 | 0.00 | 97 | 1013.2 |
| 20260906043400 | 75 | 357 | 0.0 | 0.0 | 0.00 | 0.00 | 0.00 | 97 | 1013.2 |
| 20260906043301 | 75 | 357 | 0.0 | 0.0 | 0.00 | 0.00 | 0.00 | 97 | 1013.2 |
| 20260906043200 | 75 | 357 | 0.0 | 0.0 | 0.00 | 0.00 | 0.00 | 97 | 1013.2 |
| 20260906043100 | 75 | 357 | 0.0 | 1.0 | 0.00 | 0.00 | 0.00 | 97 | 1013.2 |
| 20260906043001 | 75 | 336 | 0.0 | 0.0 | 0.00 | 0.00 | 0.00 | 97 | 1013.2 |
| 20260906042901 | 75 | 336 | 0.0 | 1.0 | 0.00 | 0.00 | 0.00 | 97 | 1013.1 |
| 20260906042800 | 75 | 336 | 1.0 | 1.0 | 0.00 | 0.00 | 0.00 | 97 | 1013.1 |
| 20260906042700 | 75 | 346 | 0.0 | 0.0 | 0.00 | 0.00 | 0.00 | 97 | 1013.1 |
| 20260906042601 | 75 | 346 | 0.0 | 0.0 | 0.00 | 0.00 | 0.00 | 97 | 1013.1 |
| 20260906042501 | 75 | 346 | 0.0 | 0.0 | 0.00 | 0.00 | 0.00 | 97 | 1013.1 |
| 20260906042300 | 75 | 346 | 0.0 | 0.0 | 0.00 | 0.00 | 0.00 | 97 | 1013.2 |
| 20260906042200 | 75 | 346 | 0.0 | 0.0 | 0.00 | 0.00 | 0.00 | 97 | 1013.2 |
| 20260906042000 | 75 | 346 | 0.0 | 0.0 | 0.00 | 0.00 | 0.00 | 97 | 1013.2 |
| 20260906041700 | 75 | 9 | 0.0 | 0.0 | 0.00 | 0.00 | 0.00 | 96 | 1013.3 |
| 20260906041600 | 75 | 9 | 0.0 | 0.0 | 0.00 | 0.00 | 0.00 | 96 | 1013.3 |
| 20260906041500 | 75 | 9 | 0.0 | 2.0 | 0.00 | 0.00 | 0.00 | 96 | 1013.3 |
| 20260906041401 | 75 | 6 | 2.0 | 2.0 | 0.00 | 0.00 | 0.00 | 96 | 1013.3 |
| 20260906041200 | 75 | 43 | 2.0 | 2.0 | 0.00 | 0.00 | 0.00 | 96 | 1013.3 |
| 20260906041100 | 75 | 76 | 2.0 | 2.0 | 0.00 | 0.00 | 0.00 | 96 | 1013.3 |
| 20260906040900 | 75 | 60 | 2.0 | 2.0 | 0.00 | 0.00 | 0.00 | 96 | 1013.4 |
| 20260906040701 | 75 | 65 | 2.0 | 1.0 | 0.00 | 0.00 | 0.00 | 96 | 1013.4 |
| 20260906040600 | 75 | 49 | 1.0 | 1.0 | 0.00 | 0.00 | 0.00 | 96 | 1013.4 |
| 20260906040500 | 75 | 16 | 1.0 | 1.0 | 0.00 | 0.00 | 0.00 | 96 | 1013.4 |
| 20260906040400 | 75 | 16 | 0.0 | 1.0 | 0.00 | 0.00 | 0.00 | 96 | 1013.4 |
| 20260906040300 | 75 | 24 | 1.0 | 1.0 | 0.00 | 0.00 | 0.00 | 96 | 1013.5 |
| 20260906040200 | 75 | 106 | 0.0 | 0.0 | 0.00 | 0.00 | 0.00 | 96 | 1013.5 |
| 20260906040001 | 75 | 106 | 0.0 | 0.0 | 0.00 | 0.00 | 0.00 | 96 | 1013.5 |
| 20260906035901 | 75 | 106 | 0.0 | 0.0 | 0.00 | 0.00 | 0.00 | 96 | 1013.5 |
| 20260906035801 | 75 | 106 | 0.0 | 0.0 | 0.00 | 0.00 | 0.00 | 96 | 1013.5 |
| 20260906035701 | 75 | 106 | 0.0 | 1.0 | 0.00 | 0.00 | 0.00 | 96 | 1013.5 |
| 20260906035601 | 75 | 320 | 0.0 | 0.0 | 0.00 | 0.00 | 0.00 | 96 | 1013.5 |
| 20260906035400 | 75 | 320 | 0.0 | 0.0 | 0.00 | 0.00 | 0.00 | 96 | 1013.5 |
| 20260906035200 | 76 | 291 | 0.0 | 1.0 | 0.00 | 0.00 | 0.00 | 96 | 1013.5 |
| 20260906035101 | 76 | 317 | 1.0 | 1.0 | 0.00 | 0.00 | 0.00 | 96 | 1013.5 |
| 20260906034900 | 76 | 292 | 0.0 | 1.0 | 0.00 | 0.00 | 0.00 | 96 | 1013.5 |
| 20260906034800 | 76 | 274 | 1.0 | 1.0 | 0.00 | 0.00 | 0.00 | 96 | 1013.5 |
| 20260906034700 | 76 | 254 | 1.0 | 1.0 | 0.00 | 0.00 | 0.00 | 96 | 1013.5 |
| 20260906034500 | 76 | 161 | 0.0 | 1.0 | 0.00 | 0.00 | 0.00 | 96 | 1013.6 |
| 20260906034400 | 76 | 159 | 0.0 | 0.0 | 0.00 | 0.00 | 0.00 | 96 | 1013.6 |
| 20260906034300 | 76 | 182 | 0.0 | 1.0 | 0.00 | 0.00 | 0.00 | 96 | 1013.6 |
| 20260906034200 | 76 | 199 | 0.0 | 0.0 | 0.00 | 0.00 | 0.00 | 96 | 1013.6 |
| 20260906034100 | 76 | 199 | 0.0 | 1.0 | 0.00 | 0.00 | 0.00 | 96 | 1013.5 |
| 20260906034000 | 76 | 220 | 0.0 | 2.0 | 0.00 | 0.00 | 0.00 | 96 | 1013.5 |
| 20260906033701 | 76 | 293 | 1.0 | 1.0 | 0.00 | 0.00 | 0.00 | 96 | 1013.5 |
| 20260906033600 | 76 | 97 | 0.0 | 1.0 | 0.00 | 0.00 | 0.00 | 96 | 1013.5 |
| 20260906033500 | 76 | 97 | 1.0 | 2.0 | 0.00 | 0.00 | 0.00 | 96 | 1013.5 |
| 20260906033401 | 76 | 75 | 2.0 | 2.0 | 0.00 | 0.00 | 0.00 | 96 | 1013.5 |
| 20260906033300 | 76 | 75 | 2.0 | 3.0 | 0.00 | 0.00 | 0.00 | 96 | 1013.5 |
| 20260906033200 | 76 | 75 | 3.0 | 4.0 | 0.00 | 0.00 | 0.00 | 96 | 1013.5 |
| 20260906033100 | 76 | 79 | 4.0 | 4.0 | 0.00 | 0.00 | 0.00 | 96 | 1013.5 |
| 20260906033000 | 76 | 76 | 3.0 | 3.0 | 0.00 | 0.00 | 0.00 | 96 | 1013.4 |
| 20260906032700 | 76 | 42 | 0.0 | 1.0 | 0.00 | 0.00 | 0.00 | 96 | 1013.3 |
| 20260906032600 | 76 | 28 | 0.0 | 1.0 | 0.00 | 0.00 | 0.00 | 96 | 1013.3 |
| 20260906032500 | 76 | 337 | 0.0 | 1.0 | 0.00 | 0.00 | 0.00 | 96 | 1013.3 |
| 20260906032101 | 76 | 280 | 0.0 | 0.0 | 0.00 | 0.00 | 0.00 | 95 | 1013.4 |
| 20260906032001 | 76 | 280 | 0.0 | 0.0 | 0.00 | 0.00 | 0.00 | 95 | 1013.4 |
| 20260906031900 | 76 | 280 | 0.0 | 0.0 | 0.00 | 0.00 | 0.00 | 95 | 1013.3 |
| 20260906031700 | 76 | 280 | 0.0 | 1.0 | 0.00 | 0.00 | 0.00 | 95 | 1013.3 |
| 20260906031600 | 76 | 347 | 1.0 | 2.0 | 0.00 | 0.00 | 0.00 | 95 | 1013.3 |
| 20260906031400 | 76 | 236 | 1.0 | 1.0 | 0.00 | 0.00 | 0.00 | 95 | 1013.3 |
| 20260906031300 | 76 | 263 | 0.0 | 1.0 | 0.00 | 0.00 | 0.00 | 95 | 1013.4 |
| 20260906031200 | 76 | 351 | 0.0 | 0.0 | 0.00 | 0.00 | 0.00 | 95 | 1013.4 |
| 20260906031100 | 76 | 351 | 0.0 | 0.0 | 0.00 | 0.00 | 0.00 | 95 | 1013.5 |
| 20260906031000 | 76 | 51 | 0.0 | 0.0 | 0.00 | 0.00 | 0.00 | 95 | 1013.5 |
| 20260906030801 | 76 | 92 | 0.0 | 1.0 | 0.00 | 0.00 | 0.00 | 95 | 1013.5 |
| 20260906030601 | 76 | 41 | 0.0 | 1.0 | 0.00 | 0.00 | 0.00 | 95 | 1013.5 |
| 20260906030501 | 76 | 41 | 1.0 | 1.0 | 0.00 | 0.00 | 0.00 | 95 | 1013.4 |
| 20260906030401 | 76 | 40 | 0.0 | 1.0 | 0.00 | 0.00 | 0.00 | 95 | 1013.4 |
| 20260906030201 | 76 | 33 | 2.0 | 2.0 | 0.00 | 0.00 | 0.00 | 95 | 1013.4 |
| 20260906030000 | 76 | 335 | 1.0 | 2.0 | 0.00 | 0.00 | 0.00 | 95 | 1013.3 |
| 20260906025901 | 76 | 294 | 0.0 | 1.0 | 0.00 | 0.00 | 0.00 | 95 | 1013.3 |
| 20260906025800 | 76 | 262 | 0.0 | 1.0 | 0.00 | 0.00 | 0.00 | 95 | 1013.3 |
| 20260906025701 | 76 | 250 | 1.0 | 1.0 | 0.00 | 0.00 | 0.00 | 95 | 1013.3 |
| 20260906025400 | 76 | 309 | 0.0 | 1.0 | 0.00 | 0.00 | 0.00 | 94 | 1013.3 |
| 20260906025301 | 76 | 10 | 0.0 | 1.0 | 0.00 | 0.00 | 0.00 | 94 | 1013.4 |
| 20260906025000 | 76 | 276 | 0.0 | 1.0 | 0.00 | 0.00 | 0.00 | 94 | 1013.4 |
| 20260906024900 | 76 | 267 | 0.0 | 1.0 | 0.00 | 0.00 | 0.00 | 94 | 1013.4 |
| 20260906024800 | 76 | 226 | 0.0 | 1.0 | 0.00 | 0.00 | 0.00 | 94 | 1013.4 |
| 20260906024600 | 76 | 282 | 0.0 | 0.0 | 0.00 | 0.00 | 0.00 | 94 | 1013.4 |
| 20260906024501 | 76 | 282 | 0.0 | 0.0 | 0.00 | 0.00 | 0.00 | 94 | 1013.3 |
| 20260906024400 | 76 | 282 | 0.0 | 0.0 | 0.00 | 0.00 | 0.00 | 94 | 1013.3 |
| 20260906024200 | 76 | 282 | 0.0 | 1.0 | 0.00 | 0.00 | 0.00 | 94 | 1013.3 |
| 20260906024100 | 76 | 19 | 0.0 | 1.0 | 0.00 | 0.00 | 0.00 | 94 | 1013.3 |
| 20260906024000 | 76 | 10 | 0.0 | 1.0 | 0.00 | 0.00 | 0.00 | 94 | 1013.3 |
| 20260906023900 | 76 | 359 | 0.0 | 1.0 | 0.00 | 0.00 | 0.00 | 94 | 1013.3 |
| 20260906023800 | 76 | 317 | 0.0 | 0.0 | 0.00 | 0.00 | 0.00 | 94 | 1013.3 |
| 20260906023601 | 76 | 303 | 1.0 | 0.0 | 0.00 | 0.00 | 0.00 | 93 | 1013.3 |
| 20260906023501 | 76 | 332 | 0.0 | 0.0 | 0.00 | 0.00 | 0.00 | 93 | 1013.3 |
| 20260906023400 | 77 | 332 | 0.0 | 1.0 | 0.00 | 0.00 | 0.00 | 93 | 1013.3 |
| 20260906023301 | 77 | 281 | 1.0 | 2.0 | 0.00 | 0.00 | 0.00 | 93 | 1013.3 |
| 20260906023200 | 77 | 317 | 1.0 | 2.0 | 0.00 | 0.00 | 0.00 | 93 | 1013.3 |
| 20260906023001 | 77 | 339 | 2.0 | 2.0 | 0.00 | 0.00 | 0.00 | 93 | 1013.3 |
| 20260906022800 | 77 | 36 | 1.0 | 1.0 | 0.00 | 0.00 | 0.00 | 93 | 1013.3 |
| 20260906022700 | 77 | 322 | 0.0 | 0.0 | 0.00 | 0.00 | 0.00 | 93 | 1013.3 |
| 20260906022600 | 77 | 322 | 0.0 | 0.0 | 0.00 | 0.00 | 0.00 | 93 | 1013.3 |
| 20260906022301 | 77 | 322 | 0.0 | 0.0 | 0.00 | 0.00 | 0.00 | 93 | 1013.2 |
| 20260906022201 | 77 | 322 | 0.0 | 1.0 | 0.00 | 0.00 | 0.00 | 93 | 1013.1 |
| 20260906022101 | 77 | 324 | 1.0 | 1.0 | 0.00 | 0.00 | 0.00 | 92 | 1013.1 |
| 20260906022000 | 77 | 256 | 0.0 | 0.0 | 0.00 | 0.00 | 0.00 | 92 | 1013.1 |
| 20260906021900 | 77 | 216 | 0.0 | 0.0 | 0.00 | 0.00 | 0.00 | 92 | 1013.1 |
| 20260906021701 | 77 | 216 | 0.0 | 0.0 | 0.00 | 0.00 | 0.00 | 92 | 1013.1 |
| 20260906021601 | 77 | 275 | 0.0 | 0.0 | 0.00 | 0.00 | 0.00 | 92 | 1013.1 |
| 20260906021500 | 77 | 275 | 0.0 | 0.0 | 0.00 | 0.00 | 0.00 | 92 | 1013.1 |
| 20260906021400 | 77 | 275 | 0.0 | 0.0 | 0.00 | 0.00 | 0.00 | 92 | 1013.0 |
| 20260906021200 | 77 | 275 | 0.0 | 1.0 | 0.00 | 0.00 | 0.00 | 92 | 1013.0 |
| 20260906021100 | 77 | 329 | 0.0 | 1.0 | 0.00 | 0.00 | 0.00 | 92 | 1013.0 |
| 20260906021001 | 77 | 310 | 1.0 | 2.0 | 0.00 | 0.00 | 0.00 | 92 | 1012.9 |
| 20260906020800 | 77 | 322 | 1.0 | 0.0 | 0.00 | 0.00 | 0.00 | 91 | 1013.0 |
| 20260906020600 | 78 | 25 | 0.0 | 0.0 | 0.00 | 0.00 | 0.00 | 91 | 1013.0 |
| 20260906020400 | 78 | 30 | 0.0 | 1.0 | 0.00 | 0.00 | 0.00 | 91 | 1013.0 |
| 20260906020101 | 78 | 47 | 0.0 | 1.0 | 0.00 | 0.00 | 0.00 | 91 | 1012.9 |
| 20260906015901 | 78 | 227 | 0.0 | 0.0 | 0.00 | 0.00 | 0.00 | 91 | 1012.9 |
| 20260906015801 | 78 | 227 | 0.0 | 1.0 | 0.00 | 0.00 | 0.00 | 91 | 1012.9 |
| 20260906015700 | 78 | 236 | 0.0 | 1.0 | 0.00 | 0.00 | 0.00 | 91 | 1012.9 |
| 20260906015600 | 78 | 326 | 0.0 | 0.0 | 0.00 | 0.00 | 0.00 | 91 | 1012.9 |
| 20260906015500 | 78 | 326 | 0.0 | 0.0 | 0.00 | 0.00 | 0.00 | 90 | 1012.9 |
| 20260906015400 | 78 | 326 | 0.0 | 1.0 | 0.00 | 0.00 | 0.00 | 90 | 1012.9 |
| 20260906015301 | 78 | 322 | 1.0 | 1.0 | 0.00 | 0.00 | 0.00 | 90 | 1012.9 |
| 20260906015201 | 78 | 313 | 1.0 | 2.0 | 0.00 | 0.00 | 0.00 | 90 | 1012.9 |
| 20260906015101 | 78 | 307 | 0.0 | 1.0 | 0.00 | 0.00 | 0.00 | 90 | 1012.8 |
| 20260906015000 | 78 | 178 | 0.0 | 0.0 | 0.00 | 0.00 | 0.00 | 90 | 1012.8 |
| 20260906014900 | 78 | 178 | 0.0 | 0.0 | 0.00 | 0.00 | 0.00 | 90 | 1012.8 |
| 20260906014700 | 78 | 180 | 1.0 | 1.0 | 0.00 | 0.00 | 0.00 | 90 | 1012.8 |
| 20260906014600 | 78 | 11 | 0.0 | 1.0 | 0.00 | 0.00 | 0.00 | 90 | 1012.8 |
| 20260906014501 | 78 | 20 | 0.0 | 1.0 | 0.00 | 0.00 | 0.00 | 90 | 1012.8 |
| 20260906014400 | 78 | 22 | 1.0 | 2.0 | 0.00 | 0.00 | 0.00 | 90 | 1012.8 |
| 20260906014300 | 78 | 5 | 1.0 | 2.0 | 0.00 | 0.00 | 0.00 | 89 | 1012.8 |
| 20260906014201 | 78 | 0 | 2.0 | 2.0 | 0.00 | 0.00 | 0.00 | 89 | 1012.8 |
| 20260906014101 | 79 | 7 | 2.0 | 2.0 | 0.00 | 0.00 | 0.00 | 89 | 1012.7 |
| 20260906013900 | 79 | 320 | 0.0 | 1.0 | 0.00 | 0.00 | 0.00 | 89 | 1012.6 |
| 20260906013601 | 79 | 279 | 0.0 | 1.0 | 0.00 | 0.00 | 0.00 | 88 | 1012.6 |
| 20260906013501 | 79 | 273 | 0.0 | 0.0 | 0.00 | 0.00 | 0.00 | 88 | 1012.5 |
| 20260906013401 | 79 | 230 | 0.0 | 1.0 | 0.00 | 0.00 | 0.00 | 88 | 1012.5 |
| 20260906013300 | 79 | 236 | 1.0 | 1.0 | 0.00 | 0.00 | 0.00 | 88 | 1012.5 |
| 20260906013200 | 79 | 262 | 0.0 | 0.0 | 0.00 | 0.00 | 0.00 | 88 | 1012.5 |
| 20260906013100 | 79 | 262 | 0.0 | 1.0 | 0.00 | 0.00 | 0.00 | 88 | 1012.5 |
| 20260906013000 | 79 | 269 | 1.0 | 0.0 | 0.00 | 0.00 | 0.00 | 88 | 1012.5 |
| 20260906012800 | 79 | 253 | 0.0 | 0.0 | 0.00 | 0.00 | 0.00 | 88 | 1012.5 |
| 20260906012700 | 79 | 253 | 0.0 | 1.0 | 0.00 | 0.00 | 0.00 | 88 | 1012.5 |
| 20260906012600 | 79 | 206 | 0.0 | 0.0 | 0.00 | 0.00 | 0.00 | 88 | 1012.5 |
| 20260906012500 | 79 | 206 | 0.0 | 0.0 | 0.00 | 0.00 | 0.00 | 87 | 1012.5 |
| 20260906012400 | 79 | 206 | 0.0 | 1.0 | 0.00 | 0.00 | 0.00 | 87 | 1012.5 |
| 20260906012301 | 79 | 258 | 0.0 | 0.0 | 0.00 | 0.00 | 0.00 | 87 | 1012.5 |
| 20260906012200 | 79 | 216 | 0.0 | 1.0 | 0.00 | 0.00 | 0.00 | 87 | 1012.5 |
| 20260906012100 | 79 | 235 | 1.0 | 1.0 | 0.00 | 0.00 | 0.00 | 87 | 1012.6 |
| 20260906011800 | 79 | 14 | 0.0 | 0.0 | 0.00 | 0.00 | 0.00 | 87 | 1012.5 |
| 20260906011700 | 79 | 14 | 0.0 | 1.0 | 0.00 | 0.00 | 0.00 | 87 | 1012.5 |
| 20260906011600 | 80 | 347 | 1.0 | 1.0 | 0.00 | 0.00 | 0.00 | 86 | 1012.4 |
| 20260906011500 | 80 | 355 | 1.0 | 1.0 | 0.00 | 0.00 | 0.00 | 86 | 1012.4 |
| 20260906011401 | 80 | 0 | 1.0 | 2.0 | 0.00 | 0.00 | 0.00 | 86 | 1012.3 |
| 20260906011300 | 80 | 2 | 2.0 | 2.0 | 0.00 | 0.00 | 0.00 | 86 | 1012.3 |
| 20260906011001 | 80 | 11 | 2.0 | 2.0 | 0.00 | 0.00 | 0.00 | 86 | 1012.2 |
| 20260906010900 | 80 | 7 | 1.0 | 2.0 | 0.00 | 0.00 | 0.00 | 85 | 1012.2 |
| 20260906010800 | 80 | 333 | 1.0 | 1.0 | 0.00 | 0.00 | 0.00 | 85 | 1012.2 |
| 20260906010700 | 80 | 209 | 0.0 | 0.0 | 0.00 | 0.00 | 0.00 | 85 | 1012.1 |
| 20260906010500 | 80 | 209 | 0.0 | 1.0 | 0.00 | 0.00 | 0.00 | 85 | 1012.1 |
| 20260906010300 | 80 | 201 | 0.0 | 1.0 | 0.00 | 0.00 | 0.00 | 85 | 1012.0 |
| 20260906010200 | 80 | 235 | 0.0 | 1.0 | 0.00 | 0.00 | 0.00 | 85 | 1012.0 |
| 20260906010101 | 80 | 246 | 1.0 | 2.0 | 0.00 | 0.00 | 0.00 | 85 | 1012.0 |
| 20260906005901 | 80 | 261 | 2.0 | 2.0 | 0.00 | 0.00 | 0.00 | 85 | 1012.0 |
| 20260906005401 | 80 | 322 | 1.0 | 1.0 | 0.00 | 0.00 | 0.00 | 84 | 1012.1 |
| 20260906005301 | 80 | 324 | 0.0 | 1.0 | 0.00 | 0.00 | 0.00 | 84 | 1012.1 |
| 20260906005200 | 80 | 287 | 0.0 | 0.0 | 0.00 | 0.00 | 0.00 | 84 | 1012.1 |
| 20260906005100 | 80 | 287 | 0.0 | 0.0 | 0.00 | 0.00 | 0.00 | 83 | 1012.0 |
| 20260906004901 | 80 | 270 | 0.0 | 2.0 | 0.00 | 0.00 | 0.00 | 83 | 1012.0 |
| 20260906004800 | 80 | 251 | 1.0 | 1.0 | 0.00 | 0.00 | 0.00 | 83 | 1012.0 |
| 20260906004700 | 81 | 289 | 0.0 | 2.0 | 0.00 | 0.00 | 0.00 | 83 | 1012.0 |
| 20260906004601 | 81 | 350 | 0.0 | 1.0 | 0.00 | 0.00 | 0.00 | 82 | 1012.0 |
| 20260906004500 | 81 | 313 | 0.0 | 1.0 | 0.00 | 0.00 | 0.00 | 82 | 1012.0 |
| 20260906004000 | 81 | 279 | 0.0 | 2.0 | 0.00 | 0.00 | 0.00 | 81 | 1011.9 |
| 20260906003901 | 81 | 321 | 1.0 | 1.0 | 0.00 | 0.00 | 0.00 | 81 | 1011.9 |
| 20260906003801 | 81 | 313 | 1.0 | 1.0 | 0.00 | 0.00 | 0.00 | 80 | 1011.9 |
| 20260906003700 | 81 | 340 | 1.0 | 2.0 | 0.00 | 0.00 | 0.00 | 80 | 1011.9 |
| 20260906003600 | 82 | 332 | 2.0 | 2.0 | 0.00 | 0.00 | 0.00 | 80 | 1011.9 |
| 20260906003400 | 82 | 339 | 2.0 | 2.0 | 0.00 | 0.00 | 0.00 | 79 | 1011.9 |
| 20260906003201 | 82 | 320 | 0.0 | 1.0 | 0.00 | 0.00 | 0.00 | 79 | 1011.9 |
| 20260906003100 | 82 | 295 | 0.0 | 1.0 | 0.00 | 0.00 | 0.00 | 78 | 1011.8 |
| 20260906003000 | 82 | 306 | 1.0 | 1.0 | 0.00 | 0.00 | 0.00 | 78 | 1011.8 |
| 20260906002900 | 82 | 279 | 0.0 | 2.0 | 0.00 | 0.00 | 0.00 | 78 | 1011.8 |
| 20260906002800 | 82 | 292 | 2.0 | 2.0 | 0.00 | 0.00 | 0.00 | 78 | 1011.8 |
| 20260906002600 | 82 | 302 | 1.0 | 2.0 | 0.00 | 0.00 | 0.00 | 77 | 1011.8 |
| 20260906002301 | 83 | 238 | 1.0 | 2.0 | 0.00 | 0.00 | 0.00 | 77 | 1011.9 |
| 20260906002201 | 83 | 227 | 1.0 | 2.0 | 0.00 | 0.00 | 0.00 | 76 | 1011.9 |
| 20260906002100 | 83 | 229 | 2.0 | 3.0 | 0.00 | 0.00 | 0.00 | 76 | 1011.9 |
| 20260906002000 | 83 | 234 | 2.0 | 3.0 | 0.00 | 0.00 | 0.00 | 76 | 1011.9 |
| 20260906001901 | 83 | 218 | 2.0 | 2.0 | 0.00 | 0.00 | 0.00 | 77 | 1011.9 |
| 20260906001801 | 83 | 301 | 1.0 | 2.0 | 0.00 | 0.00 | 0.00 | 76 | 1011.9 |
| 20260906001601 | 83 | 236 | 2.0 | 3.0 | 0.00 | 0.00 | 0.00 | 77 | 1011.9 |
| 20260906001501 | 83 | 268 | 2.0 | 3.0 | 0.00 | 0.00 | 0.00 | 76 | 1011.9 |
| 20260906001401 | 83 | 249 | 3.0 | 3.0 | 0.00 | 0.00 | 0.00 | 76 | 1011.9 |
| 20260906001200 | 83 | 256 | 2.0 | 3.0 | 0.00 | 0.00 | 0.00 | 75 | 1011.9 |
| 20260906001100 | 83 | 234 | 2.0 | 3.0 | 0.00 | 0.00 | 0.00 | 76 | 1012.0 |
| 20260906001000 | 83 | 243 | 2.0 | 3.0 | 0.00 | 0.00 | 0.00 | 77 | 1012.0 |
| 20260906000900 | 83 | 283 | 1.0 | 1.0 | 0.00 | 0.00 | 0.00 | 76 | 1012.0 |
| 20260906000800 | 83 | 235 | 2.0 | 2.0 | 0.00 | 0.00 | 0.00 | 75 | 1012.0 |
| 20260906000701 | 83 | 250 | 2.0 | 3.0 | 0.00 | 0.00 | 0.00 | 75 | 1012.0 |
| 20260906000600 | 83 | 259 | 3.0 | 5.0 | 0.00 | 0.00 | 0.00 | 75 | 1012.0 |
| 20260906000200 | 84 | 278 | 3.0 | 4.0 | 0.00 | 0.00 | 0.00 | 75 | 1011.9 |
| 20260905235901 | 84 | 233 | 2.0 | 4.0 | 0.00 | 0.00 | 0.00 | 75 | 1011.9 |
| 20260905235600 | 84 | 237 | 1.0 | 2.0 | 0.00 | 0.00 | 0.00 | 76 | 1012.0 |
| 20260905235500 | 84 | 236 | 1.0 | 2.0 | 0.00 | 0.00 | 0.00 | 76 | 1012.0 |
| 20260905235400 | 84 | 247 | 1.0 | 2.0 | 0.00 | 0.00 | 0.00 | 75 | 1012.1 |
| 20260905235201 | 85 | 264 | 1.0 | 2.0 | 0.00 | 0.00 | 0.00 | 75 | 1012.1 |
| 20260905235100 | 85 | 257 | 2.0 | 2.0 | 0.00 | 0.00 | 0.00 | 74 | 1012.1 |
| 20260905234801 | 85 | 237 | 2.0 | 3.0 | 0.00 | 0.00 | 0.00 | 73 | 1012.0 |
| 20260905234301 | 85 | 242 | 2.0 | 3.0 | 0.00 | 0.00 | 0.00 | 73 | 1012.1 |
| 20260905234200 | 85 | 253 | 2.0 | 4.0 | 0.00 | 0.00 | 0.00 | 73 | 1012.1 |
| 20260905233900 | 85 | 239 | 3.0 | 4.0 | 0.00 | 0.00 | 0.00 | 73 | 1012.0 |
| 20260905233501 | 86 | 194 | 3.0 | 6.0 | 0.00 | 0.00 | 0.00 | 73 | 1012.1 |
| 20260905233400 | 86 | 251 | 3.0 | 5.0 | 0.00 | 0.00 | 0.00 | 72 | 1012.0 |
| 20260905233300 | 86 | 229 | 3.0 | 6.0 | 0.00 | 0.00 | 0.00 | 72 | 1012.1 |
| 20260905233200 | 86 | 230 | 5.0 | 7.0 | 0.00 | 0.00 | 0.00 | 72 | 1012.1 |
| 20260905232901 | 86 | 237 | 2.0 | 3.0 | 0.00 | 0.00 | 0.00 | 72 | 1012.2 |
| 20260905232700 | 86 | 287 | 2.0 | 4.0 | 0.00 | 0.00 | 0.00 | 72 | 1012.2 |
| 20260905232600 | 86 | 302 | 2.0 | 3.0 | 0.00 | 0.00 | 0.00 | 72 | 1012.2 |
| 20260905232501 | 86 | 259 | 3.0 | 5.0 | 0.00 | 0.00 | 0.00 | 72 | 1012.2 |
| 20260905232400 | 86 | 245 | 3.0 | 4.0 | 0.00 | 0.00 | 0.00 | 72 | 1012.2 |
| 20260905232300 | 86 | 247 | 3.0 | 5.0 | 0.00 | 0.00 | 0.00 | 72 | 1012.2 |
| 20260905232101 | 86 | 230 | 2.0 | 3.0 | 0.00 | 0.00 | 0.00 | 72 | 1012.2 |
| 20260905232000 | 86 | 239 | 1.0 | 2.0 | 0.00 | 0.00 | 0.00 | 72 | 1012.2 |
| 20260905231800 | 86 | 212 | 1.0 | 2.0 | 0.00 | 0.00 | 0.00 | 71 | 1012.2 |
| 20260905231700 | 86 | 291 | 2.0 | 3.0 | 0.00 | 0.00 | 0.00 | 71 | 1012.2 |
| 20260905231600 | 86 | 232 | 2.0 | 3.0 | 0.00 | 0.00 | 0.00 | 71 | 1012.2 |
| 20260905231501 | 86 | 242 | 3.0 | 4.0 | 0.00 | 0.00 | 0.00 | 71 | 1012.1 |
| 20260905231401 | 86 | 245 | 1.0 | 3.0 | 0.00 | 0.00 | 0.00 | 71 | 1012.1 |
| 20260905231300 | 86 | 216 | 4.0 | 6.0 | 0.00 | 0.00 | 0.00 | 71 | 1012.0 |
| 20260905231201 | 87 | 259 | 2.0 | 4.0 | 0.00 | 0.00 | 0.00 | 71 | 1012.1 |
| 20260905231100 | 87 | 254 | 2.0 | 3.0 | 0.00 | 0.00 | 0.00 | 71 | 1012.1 |
| 20260905231000 | 87 | 228 | 2.0 | 3.0 | 0.00 | 0.00 | 0.00 | 71 | 1012.1 |
| 20260905230600 | 87 | 174 | 2.0 | 3.0 | 0.00 | 0.00 | 0.00 | 70 | 1012.1 |
| 20260905230501 | 87 | 250 | 2.0 | 3.0 | 0.00 | 0.00 | 0.00 | 70 | 1012.1 |
| 20260905230400 | 87 | 255 | 1.0 | 2.0 | 0.00 | 0.00 | 0.00 | 70 | 1012.1 |
| 20260905230300 | 87 | 127 | 1.0 | 4.0 | 0.00 | 0.00 | 0.00 | 70 | 1012.1 |
| 20260905230200 | 87 | 233 | 0.0 | 5.0 | 0.00 | 0.00 | 0.00 | 70 | 1012.0 |
| 20260905225900 | 87 | 221 | 3.0 | 4.0 | 0.00 | 0.00 | 0.00 | 70 | 1012.0 |
| 20260905225700 | 87 | 246 | 4.0 | 3.0 | 0.00 | 0.00 | 0.00 | 70 | 1012.1 |
| 20260905225600 | 87 | 239 | 2.0 | 3.0 | 0.00 | 0.00 | 0.00 | 70 | 1012.1 |
| 20260905225500 | 87 | 304 | 1.0 | 6.0 | 0.00 | 0.00 | 0.00 | 70 | 1012.0 |
| 20260905225301 | 88 | 223 | 4.0 | 6.0 | 0.00 | 0.00 | 0.00 | 69 | 1012.0 |
| 20260905225201 | 88 | 237 | 5.0 | 7.0 | 0.00 | 0.00 | 0.00 | 69 | 1012.0 |
| 20260905225001 | 88 | 245 | 3.0 | 4.0 | 0.00 | 0.00 | 0.00 | 69 | 1012.0 |
| 20260905224901 | 88 | 238 | 1.0 | 2.0 | 0.00 | 0.00 | 0.00 | 70 | 1012.0 |
| 20260905224801 | 87 | 146 | 1.0 | 2.0 | 0.00 | 0.00 | 0.00 | 69 | 1012.0 |
| 20260905224500 | 87 | 243 | 3.0 | 4.0 | 0.00 | 0.00 | 0.00 | 69 | 1012.0 |
| 20260905224400 | 87 | 142 | 2.0 | 4.0 | 0.00 | 0.00 | 0.00 | 70 | 1012.0 |
| 20260905224300 | 87 | 62 | 1.0 | 6.0 | 0.00 | 0.00 | 0.00 | 70 | 1012.0 |
| 20260905224201 | 87 | 239 | 2.0 | 6.0 | 0.00 | 0.00 | 0.00 | 70 | 1012.0 |
| 20260905224101 | 87 | 27 | 1.0 | 3.0 | 0.00 | 0.00 | 0.00 | 70 | 1012.0 |
| 20260905224001 | 87 | 271 | 1.0 | 3.0 | 0.00 | 0.00 | 0.00 | 70 | 1012.0 |
| 20260905223800 | 87 | 253 | 1.0 | 2.0 | 0.00 | 0.00 | 0.00 | 72 | 1012.1 |
| 20260905223600 | 87 | 192 | 1.0 | 3.0 | 0.00 | 0.00 | 0.00 | 72 | 1012.2 |
| 20260905223500 | 87 | 276 | 3.0 | 5.0 | 0.00 | 0.00 | 0.00 | 72 | 1012.2 |
| 20260905223401 | 87 | 243 | 3.0 | 5.0 | 0.00 | 0.00 | 0.00 | 72 | 1012.2 |
| 20260905223100 | 87 | 302 | 1.0 | 5.0 | 0.00 | 0.00 | 0.00 | 71 | 1012.2 |
| 20260905223000 | 87 | 242 | 3.0 | 5.0 | 0.00 | 0.00 | 0.00 | 71 | 1012.2 |
| 20260905222900 | 86 | 240 | 4.0 | 6.0 | 0.00 | 0.00 | 0.00 | 72 | 1012.2 |
| 20260905222800 | 86 | 168 | 2.0 | 6.0 | 0.00 | 0.00 | 0.00 | 72 | 1012.2 |
| 20260905222700 | 86 | 293 | 4.0 | 5.0 | 0.00 | 0.00 | 0.00 | 72 | 1012.2 |
| 20260905222501 | 86 | 252 | 3.0 | 4.0 | 0.00 | 0.00 | 0.00 | 72 | 1012.2 |
| 20260905222400 | 86 | 240 | 1.0 | 4.0 | 0.00 | 0.00 | 0.00 | 73 | 1012.3 |
| 20260905222300 | 86 | 163 | 3.0 | 3.0 | 0.00 | 0.00 | 0.00 | 72 | 1012.3 |
| 20260905222000 | 86 | 230 | 4.0 | 3.0 | 0.00 | 0.00 | 0.00 | 73 | 1012.3 |
| 20260905221700 | 86 | 227 | 4.0 | 5.0 | 0.00 | 0.00 | 0.00 | 73 | 1012.3 |
| 20260905221500 | 86 | 268 | 5.0 | 5.0 | 0.00 | 0.00 | 0.00 | 73 | 1012.3 |
| 20260905221300 | 86 | 253 | 5.0 | 4.0 | 0.00 | 0.00 | 0.00 | 73 | 1012.3 |
| 20260905221200 | 86 | 249 | 2.0 | 3.0 | 0.00 | 0.00 | 0.00 | 73 | 1012.3 |
| 20260905221100 | 86 | 218 | 2.0 | 7.0 | 0.00 | 0.00 | 0.00 | 73 | 1012.3 |
| 20260905220901 | 86 | 234 | 1.0 | 5.0 | 0.00 | 0.00 | 0.00 | 72 | 1012.3 |
| 20260905220800 | 86 | 192 | 3.0 | 5.0 | 0.00 | 0.00 | 0.00 | 72 | 1012.2 |
| 20260905220700 | 86 | 234 | 5.0 | 5.0 | 0.00 | 0.00 | 0.00 | 72 | 1012.2 |
| 20260905220600 | 86 | 238 | 3.0 | 5.0 | 0.00 | 0.00 | 0.00 | 72 | 1012.2 |
| 20260905220500 | 86 | 236 | 3.0 | 6.0 | 0.00 | 0.00 | 0.00 | 72 | 1012.2 |
| 20260905220401 | 86 | 25 | 1.0 | 6.0 | 0.00 | 0.00 | 0.00 | 72 | 1012.2 |
| 20260905220300 | 86 | 241 | 4.0 | 4.0 | 0.00 | 0.00 | 0.00 | 72 | 1012.2 |
| 20260905220201 | 86 | 240 | 4.0 | 7.0 | 0.00 | 0.00 | 0.00 | 72 | 1012.2 |
| 20260905220001 | 86 | 255 | 8.0 | 3.0 | 0.00 | 0.00 | 0.00 | 71 | 1012.3 |
| 20260905215900 | 86 | 204 | 3.0 | 6.0 | 0.00 | 0.00 | 0.00 | 71 | 1012.3 |
| 20260905215800 | 86 | 238 | 1.0 | 6.0 | 0.00 | 0.00 | 0.00 | 72 | 1012.3 |
| 20260905215600 | 86 | 218 | 3.0 | 5.0 | 0.00 | 0.00 | 0.00 | 72 | 1012.2 |
| 20260905215500 | 86 | 241 | 2.0 | 5.0 | 0.00 | 0.00 | 0.00 | 72 | 1012.2 |
| 20260905215400 | 86 | 132 | 2.0 | 6.0 | 0.00 | 0.00 | 0.00 | 72 | 1012.2 |
| 20260905215301 | 86 | 277 | 5.0 | 4.0 | 0.00 | 0.00 | 0.00 | 72 | 1012.2 |
| 20260905215201 | 86 | 308 | 4.0 | 4.0 | 0.00 | 0.00 | 0.00 | 72 | 1012.2 |
| 20260905215100 | 86 | 225 | 3.0 | 5.0 | 0.00 | 0.00 | 0.00 | 72 | 1012.2 |
| 20260905215000 | 86 | 267 | 2.0 | 5.0 | 0.00 | 0.00 | 0.00 | 72 | 1012.2 |
| 20260905214900 | 86 | 296 | 3.0 | 7.0 | 0.00 | 0.00 | 0.00 | 72 | 1012.2 |
| 20260905214800 | 87 | 252 | 4.0 | 4.0 | 0.00 | 0.00 | 0.00 | 72 | 1012.2 |
| 20260905214701 | 87 | 264 | 3.0 | 5.0 | 0.00 | 0.00 | 0.00 | 72 | 1012.2 |
| 20260905214401 | 87 | 252 | 4.0 | 7.0 | 0.00 | 0.00 | 0.00 | 71 | 1012.2 |
| 20260905214300 | 87 | 223 | 4.0 | 7.0 | 0.00 | 0.00 | 0.00 | 71 | 1012.2 |
| 20260905214200 | 87 | 236 | 7.0 | 5.0 | 0.00 | 0.00 | 0.00 | 71 | 1012.2 |
| 20260905214000 | 88 | 227 | 3.0 | 6.0 | 0.00 | 0.00 | 0.00 | 69 | 1012.2 |
| 20260905213900 | 88 | 224 | 6.0 | 5.0 | 0.00 | 0.00 | 0.00 | 69 | 1012.2 |
| 20260905213700 | 88 | 234 | 4.0 | 4.0 | 0.00 | 0.00 | 0.00 | 69 | 1012.2 |
| 20260905213600 | 88 | 166 | 1.0 | 6.0 | 0.00 | 0.00 | 0.00 | 69 | 1012.2 |
| 20260905213501 | 87 | 259 | 3.0 | 4.0 | 0.00 | 0.00 | 0.00 | 69 | 1012.1 |
| 20260905213200 | 88 | 253 | 2.0 | 6.0 | 0.00 | 0.00 | 0.00 | 69 | 1012.2 |
| 20260905213100 | 88 | 236 | 5.0 | 4.0 | 0.00 | 0.00 | 0.00 | 69 | 1012.1 |
| 20260905213001 | 88 | 199 | 3.0 | 4.0 | 0.00 | 0.00 | 0.00 | 69 | 1012.1 |
| 20260905212901 | 88 | 125 | 2.0 | 3.0 | 0.00 | 0.00 | 0.00 | 68 | 1012.2 |
| 20260905212800 | 88 | 245 | 3.0 | 5.0 | 0.00 | 0.00 | 0.00 | 68 | 1012.2 |
| 20260905212700 | 88 | 203 | 3.0 | 4.0 | 0.00 | 0.00 | 0.00 | 69 | 1012.2 |
| 20260905212600 | 88 | 249 | 3.0 | 7.0 | 0.00 | 0.00 | 0.00 | 69 | 1012.2 |
| 20260905212400 | 88 | 141 | 4.0 | 5.0 | 0.00 | 0.00 | 0.00 | 68 | 1012.2 |
| 20260905212301 | 88 | 274 | 2.0 | 4.0 | 0.00 | 0.00 | 0.00 | 68 | 1012.3 |
| 20260905212201 | 88 | 256 | 4.0 | 5.0 | 0.00 | 0.00 | 0.00 | 68 | 1012.3 |
| 20260905212100 | 88 | 156 | 3.0 | 6.0 | 0.00 | 0.00 | 0.00 | 68 | 1012.3 |
| 20260905211800 | 87 | 161 | 1.0 | 3.0 | 0.00 | 0.00 | 0.00 | 69 | 1012.3 |
| 20260905211701 | 87 | 185 | 2.0 | 6.0 | 0.00 | 0.00 | 0.00 | 69 | 1012.4 |
| 20260905211601 | 87 | 125 | 3.0 | 6.0 | 0.00 | 0.00 | 0.00 | 69 | 1012.4 |
| 20260905211500 | 87 | 297 | 1.0 | 7.0 | 0.00 | 0.00 | 0.00 | 69 | 1012.5 |
| 20260905211400 | 87 | 235 | 2.0 | 7.0 | 0.00 | 0.00 | 0.00 | 69 | 1012.5 |
| 20260905211101 | 88 | 186 | 1.0 | 6.0 | 0.00 | 0.00 | 0.00 | 68 | 1012.5 |
| 20260905211001 | 88 | 173 | 1.0 | 6.0 | 0.00 | 0.00 | 0.00 | 67 | 1012.5 |
| 20260905210900 | 88 | 266 | 3.0 | 8.0 | 0.00 | 0.00 | 0.00 | 68 | 1012.5 |
| 20260905210801 | 88 | 328 | 6.0 | 6.0 | 0.00 | 0.00 | 0.00 | 68 | 1012.5 |
| 20260905210700 | 88 | 180 | 4.0 | 6.0 | 0.00 | 0.00 | 0.00 | 68 | 1012.5 |
| 20260905210600 | 88 | 318 | 2.0 | 6.0 | 0.00 | 0.00 | 0.00 | 68 | 1012.5 |
| 20260905210500 | 87 | 251 | 1.0 | 4.0 | 0.00 | 0.00 | 0.00 | 69 | 1012.5 |
| 20260905210300 | 87 | 271 | 3.0 | 8.0 | 0.00 | 0.00 | 0.00 | 68 | 1012.4 |
| 20260905210101 | 87 | 243 | 7.0 | 4.0 | 0.00 | 0.00 | 0.00 | 69 | 1012.4 |
| 20260905210000 | 87 | 247 | 3.0 | 4.0 | 0.00 | 0.00 | 0.00 | 69 | 1012.4 |
| 20260905205901 | 87 | 212 | 3.0 | 5.0 | 0.00 | 0.00 | 0.00 | 70 | 1012.4 |
| 20260905205800 | 87 | 215 | 4.0 | 5.0 | 0.00 | 0.00 | 0.00 | 70 | 1012.4 |
| 20260905205600 | 87 | 218 | 6.0 | 5.0 | 0.00 | 0.00 | 0.00 | 69 | 1012.5 |
| 20260905205400 | 87 | 249 | 1.0 | 5.0 | 0.00 | 0.00 | 0.00 | 70 | 1012.5 |
| 20260905205301 | 87 | 214 | 1.0 | 6.0 | 0.00 | 0.00 | 0.00 | 70 | 1012.5 |
| 20260905205100 | 87 | 247 | 4.0 | 5.0 | 0.00 | 0.00 | 0.00 | 70 | 1012.5 |
| 20260905205001 | 87 | 288 | 4.0 | 7.0 | 0.00 | 0.00 | 0.00 | 70 | 1012.6 |
| 20260905204900 | 87 | 130 | 4.0 | 3.0 | 0.00 | 0.00 | 0.00 | 70 | 1012.6 |
| 20260905204800 | 87 | 189 | 3.0 | 3.0 | 0.00 | 0.00 | 0.00 | 70 | 1012.6 |
| 20260905204700 | 87 | 139 | 2.0 | 3.0 | 0.00 | 0.00 | 0.00 | 70 | 1012.6 |
| 20260905204601 | 87 | 165 | 1.0 | 4.0 | 0.00 | 0.00 | 0.00 | 70 | 1012.6 |
| 20260905204501 | 87 | 252 | 4.0 | 3.0 | 0.00 | 0.00 | 0.00 | 71 | 1012.7 |
| 20260905204400 | 87 | 231 | 3.0 | 5.0 | 0.00 | 0.00 | 0.00 | 71 | 1012.7 |
| 20260905204300 | 87 | 222 | 2.0 | 5.0 | 0.00 | 0.00 | 0.00 | 71 | 1012.8 |
| 20260905204200 | 87 | 261 | 1.0 | 6.0 | 0.00 | 0.00 | 0.00 | 71 | 1012.8 |
| 20260905204100 | 87 | 262 | 6.0 | 6.0 | 0.00 | 0.00 | 0.00 | 71 | 1012.8 |
| 20260905204000 | 87 | 312 | 2.0 | 5.0 | 0.00 | 0.00 | 0.00 | 70 | 1012.8 |
| 20260905203901 | 87 | 275 | 4.0 | 4.0 | 0.00 | 0.00 | 0.00 | 70 | 1012.8 |
| 20260905203801 | 87 | 292 | 4.0 | 5.0 | 0.00 | 0.00 | 0.00 | 70 | 1012.7 |
| 20260905203701 | 87 | 179 | 3.0 | 5.0 | 0.00 | 0.00 | 0.00 | 70 | 1012.7 |
| 20260905203601 | 87 | 192 | 3.0 | 6.0 | 0.00 | 0.00 | 0.00 | 70 | 1012.7 |
| 20260905203500 | 87 | 180 | 6.0 | 4.0 | 0.00 | 0.00 | 0.00 | 70 | 1012.7 |
| 20260905203400 | 87 | 281 | 4.0 | 6.0 | 0.00 | 0.00 | 0.00 | 70 | 1012.7 |
| 20260905203201 | 87 | 262 | 2.0 | 5.0 | 0.00 | 0.00 | 0.00 | 70 | 1012.8 |
| 20260905203001 | 86 | 288 | 1.0 | 5.0 | 0.00 | 0.00 | 0.00 | 70 | 1012.8 |
| 20260905202901 | 87 | 265 | 3.0 | 7.0 | 0.00 | 0.00 | 0.00 | 69 | 1012.8 |
| 20260905202801 | 87 | 298 | 3.0 | 7.0 | 0.00 | 0.00 | 0.00 | 69 | 1012.8 |
| 20260905202600 | 86 | 199 | 2.0 | 8.0 | 0.00 | 0.00 | 0.00 | 70 | 1012.8 |
| 20260905202500 | 86 | 260 | 2.0 | 5.0 | 0.00 | 0.00 | 0.00 | 71 | 1012.8 |
| 20260905202300 | 86 | 325 | 1.0 | 3.0 | 0.00 | 0.00 | 0.00 | 72 | 1012.9 |
| 20260905202200 | 86 | 252 | 2.0 | 4.0 | 0.00 | 0.00 | 0.00 | 72 | 1012.9 |
| 20260905202100 | 86 | 300 | 1.0 | 4.0 | 0.00 | 0.00 | 0.00 | 71 | 1012.9 |
| 20260905201500 | 85 | 182 | 2.0 | 7.0 | 0.00 | 0.00 | 0.00 | 71 | 1012.9 |
| 20260905201401 | 85 | 199 | 1.0 | 7.0 | 0.00 | 0.00 | 0.00 | 71 | 1012.9 |
| 20260905201201 | 85 | 131 | 5.0 | 4.0 | 0.00 | 0.00 | 0.00 | 72 | 1012.9 |
| 20260905201101 | 85 | 212 | 3.0 | 5.0 | 0.00 | 0.00 | 0.00 | 73 | 1012.9 |
| 20260905201000 | 85 | 262 | 2.0 | 3.0 | 0.00 | 0.00 | 0.00 | 74 | 1012.9 |
| 20260905200900 | 85 | 235 | 3.0 | 7.0 | 0.00 | 0.00 | 0.00 | 74 | 1013.0 |
| 20260905200601 | 85 | 161 | 3.0 | 7.0 | 0.00 | 0.00 | 0.00 | 73 | 1013.2 |
| 20260905200400 | 85 | 269 | 3.0 | 5.0 | 0.00 | 0.00 | 0.00 | 73 | 1013.2 |
| 20260905200300 | 85 | 245 | 3.0 | 4.0 | 0.00 | 0.00 | 0.00 | 73 | 1013.3 |
| 20260905200200 | 85 | 127 | 2.0 | 4.0 | 0.00 | 0.00 | 0.00 | 73 | 1013.3 |
| 20260905200100 | 85 | 184 | 4.0 | 7.0 | 0.00 | 0.00 | 0.00 | 73 | 1013.3 |
| 20260905195801 | 85 | 249 | 4.0 | 5.0 | 0.00 | 0.00 | 0.00 | 73 | 1013.3 |
| 20260905195700 | 85 | 194 | 4.0 | 6.0 | 0.00 | 0.00 | 0.00 | 73 | 1013.3 |
| 20260905195600 | 85 | 173 | 5.0 | 6.0 | 0.00 | 0.00 | 0.00 | 73 | 1013.3 |
| 20260905195401 | 86 | 222 | 2.0 | 11.0 | 0.00 | 0.00 | 0.00 | 71 | 1013.2 |
| 20260905195300 | 86 | 266 | 11.0 | 5.0 | 0.00 | 0.00 | 0.00 | 71 | 1013.3 |
| 20260905195200 | 86 | 320 | 3.0 | 6.0 | 0.00 | 0.00 | 0.00 | 71 | 1013.2 |
| 20260905195001 | 86 | 232 | 4.0 | 8.0 | 0.00 | 0.00 | 0.00 | 72 | 1013.2 |
| 20260905194901 | 86 | 265 | 8.0 | 8.0 | 0.00 | 0.00 | 0.00 | 72 | 1013.2 |
| 20260905194801 | 86 | 168 | 6.0 | 6.0 | 0.00 | 0.00 | 0.00 | 71 | 1013.3 |
| 20260905194500 | 85 | 214 | 3.0 | 7.0 | 0.00 | 0.00 | 0.00 | 72 | 1013.3 |
| 20260905194400 | 85 | 209 | 7.0 | 8.0 | 0.00 | 0.00 | 0.00 | 72 | 1013.2 |
| 20260905194301 | 85 | 234 | 6.0 | 9.0 | 0.00 | 0.00 | 0.00 | 72 | 1013.2 |
| 20260905194000 | 85 | 156 | 5.0 | 5.0 | 0.00 | 0.00 | 0.00 | 72 | 1013.2 |
| 20260905193901 | 85 | 222 | 2.0 | 3.0 | 0.00 | 0.00 | 0.00 | 74 | 1013.2 |
| 20260905193700 | 85 | 218 | 0.0 | 10.0 | 0.00 | 0.00 | 0.00 | 74 | 1013.1 |
| 20260905193501 | 85 | 268 | 9.0 | 8.0 | 0.00 | 0.00 | 0.00 | 71 | 1013.2 |
| 20260905193301 | 85 | 228 | 7.0 | 7.0 | 0.00 | 0.00 | 0.00 | 71 | 1013.3 |
| 20260905193201 | 85 | 210 | 6.0 | 6.0 | 0.00 | 0.00 | 0.00 | 72 | 1013.2 |
| 20260905193100 | 85 | 162 | 5.0 | 7.0 | 0.00 | 0.00 | 0.00 | 74 | 1013.3 |
| 20260905193000 | 85 | 216 | 7.0 | 10.0 | 0.00 | 0.00 | 0.00 | 73 | 1013.2 |
| 20260905192901 | 85 | 229 | 10.0 | 9.0 | 0.00 | 0.00 | 0.00 | 73 | 1013.3 |
| 20260905192800 | 84 | 251 | 3.0 | 6.0 | 0.00 | 0.00 | 0.00 | 73 | 1013.3 |
| 20260905192700 | 84 | 300 | 1.0 | 7.0 | 0.00 | 0.00 | 0.00 | 74 | 1013.3 |
| 20260905192600 | 84 | 180 | 5.0 | 7.0 | 0.00 | 0.00 | 0.00 | 74 | 1013.3 |
| 20260905192401 | 84 | 82 | 3.0 | 8.0 | 0.00 | 0.00 | 0.00 | 74 | 1013.4 |
| 20260905192301 | 84 | 213 | 2.0 | 7.0 | 0.00 | 0.00 | 0.00 | 74 | 1013.3 |
| 20260905192100 | 84 | 213 | 3.0 | 8.0 | 0.00 | 0.00 | 0.00 | 74 | 1013.3 |
| 20260905191901 | 84 | 143 | 4.0 | 7.0 | 0.00 | 0.00 | 0.00 | 75 | 1013.3 |
| 20260905191800 | 84 | 257 | 0.0 | 7.0 | 0.00 | 0.00 | 0.00 | 75 | 1013.4 |
| 20260905191700 | 84 | 160 | 7.0 | 10.0 | 0.00 | 0.00 | 0.00 | 74 | 1013.4 |
| 20260905191501 | 84 | 192 | 7.0 | 10.0 | 0.00 | 0.00 | 0.00 | 74 | 1013.4 |
| 20260905191301 | 84 | 227 | 2.0 | 8.0 | 0.00 | 0.00 | 0.00 | 74 | 1013.5 |
| 20260905191201 | 85 | 139 | 5.0 | 6.0 | 0.00 | 0.00 | 0.00 | 74 | 1013.4 |
| 20260905191100 | 85 | 206 | 3.0 | 7.0 | 0.00 | 0.00 | 0.00 | 74 | 1013.5 |
| 20260905191001 | 85 | 177 | 4.0 | 10.0 | 0.00 | 0.00 | 0.00 | 73 | 1013.5 |
| 20260905190901 | 85 | 120 | 8.0 | 9.0 | 0.00 | 0.00 | 0.00 | 74 | 1013.4 |
| 20260905190800 | 85 | 227 | 4.0 | 6.0 | 0.00 | 0.00 | 0.00 | 73 | 1013.3 |
| 20260905190700 | 85 | 243 | 3.0 | 6.0 | 0.00 | 0.00 | 0.00 | 73 | 1013.4 |
| 20260905190600 | 84 | 181 | 6.0 | 4.0 | 0.00 | 0.00 | 0.00 | 74 | 1013.3 |
| 20260905190301 | 84 | 299 | 3.0 | 9.0 | 0.00 | 0.00 | 0.00 | 75 | 1013.4 |
| 20260905190100 | 85 | 248 | 4.0 | 8.0 | 0.00 | 0.00 | 0.00 | 74 | 1013.6 |
| 20260905185801 | 85 | 274 | 5.0 | 5.0 | 0.00 | 0.00 | 0.00 | 75 | 1013.6 |
| 20260905185701 | 85 | 306 | 3.0 | 5.0 | 0.00 | 0.00 | 0.00 | 75 | 1013.7 |
| 20260905185501 | 85 | 259 | 3.0 | 7.0 | 0.00 | 0.00 | 0.00 | 73 | 1013.7 |
| 20260905185401 | 85 | 251 | 6.0 | 5.0 | 0.00 | 0.00 | 0.00 | 74 | 1013.8 |
| 20260905185301 | 86 | 4 | 2.0 | 8.0 | 0.00 | 0.00 | 0.00 | 73 | 1013.7 |
| 20260905185200 | 86 | 349 | 4.0 | 8.0 | 0.00 | 0.00 | 0.00 | 73 | 1013.7 |
| 20260905185100 | 86 | 319 | 2.0 | 9.0 | 0.00 | 0.00 | 0.00 | 71 | 1013.8 |
| 20260905184801 | 86 | 249 | 4.0 | 4.0 | 0.00 | 0.00 | 0.00 | 72 | 1013.9 |
| 20260905184701 | 86 | 302 | 4.0 | 6.0 | 0.00 | 0.00 | 0.00 | 71 | 1013.9 |
| 20260905184600 | 86 | 217 | 4.0 | 5.0 | 0.00 | 0.00 | 0.00 | 71 | 1014.0 |
| 20260905184400 | 85 | 34 | 4.0 | 7.0 | 0.00 | 0.00 | 0.00 | 72 | 1013.9 |
| 20260905184301 | 86 | 221 | 3.0 | 8.0 | 0.00 | 0.00 | 0.00 | 73 | 1013.9 |
| 20260905184200 | 86 | 173 | 4.0 | 11.0 | 0.00 | 0.00 | 0.00 | 72 | 1013.9 |
| 20260905184100 | 86 | 248 | 6.0 | 8.0 | 0.00 | 0.00 | 0.00 | 72 | 1013.9 |
| 20260905183901 | 86 | 208 | 3.0 | 9.0 | 0.00 | 0.00 | 0.00 | 72 | 1013.9 |
| 20260905183801 | 86 | 228 | 7.0 | 10.0 | 0.00 | 0.00 | 0.00 | 71 | 1013.8 |
| 20260905183701 | 85 | 257 | 10.0 | 7.0 | 0.00 | 0.00 | 0.00 | 71 | 1013.9 |
| 20260905183500 | 85 | 265 | 8.0 | 6.0 | 0.00 | 0.00 | 0.00 | 72 | 1014.0 |
| 20260905183400 | 85 | 190 | 3.0 | 7.0 | 0.00 | 0.00 | 0.00 | 73 | 1014.0 |
| 20260905183200 | 85 | 151 | 4.0 | 7.0 | 0.00 | 0.00 | 0.00 | 73 | 1014.0 |
| 20260905183100 | 85 | 168 | 5.0 | 8.0 | 0.00 | 0.00 | 0.00 | 73 | 1014.0 |
| 20260905183000 | 85 | 169 | 6.0 | 9.0 | 0.00 | 0.00 | 0.00 | 73 | 1014.0 |
| 20260905182800 | 85 | 249 | 9.0 | 8.0 | 0.00 | 0.00 | 0.00 | 73 | 1014.0 |
| 20260905182700 | 85 | 232 | 2.0 | 5.0 | 0.00 | 0.00 | 0.00 | 73 | 1014.1 |
| 20260905182600 | 84 | 164 | 4.0 | 8.0 | 0.00 | 0.00 | 0.00 | 74 | 1014.1 |
| 20260905182500 | 85 | 235 | 3.0 | 6.0 | 0.00 | 0.00 | 0.00 | 75 | 1014.2 |
| 20260905182400 | 85 | 194 | 4.0 | 6.0 | 0.00 | 0.00 | 0.00 | 75 | 1014.2 |
| 20260905182301 | 85 | 203 | 4.0 | 12.0 | 0.00 | 0.00 | 0.00 | 75 | 1014.3 |
| 20260905182201 | 85 | 221 | 5.0 | 6.0 | 0.00 | 0.00 | 0.00 | 75 | 1014.3 |
| 20260905182100 | 85 | 214 | 4.0 | 8.0 | 0.00 | 0.00 | 0.00 | 74 | 1014.3 |
| 20260905182001 | 85 | 142 | 7.0 | 9.0 | 0.00 | 0.00 | 0.00 | 73 | 1014.3 |
| 20260905181900 | 85 | 224 | 6.0 | 7.0 | 0.00 | 0.00 | 0.00 | 73 | 1014.3 |
| 20260905181800 | 85 | 206 | 5.0 | 12.0 | 0.00 | 0.00 | 0.00 | 73 | 1014.3 |
| 20260905181600 | 85 | 116 | 5.0 | 4.0 | 0.00 | 0.00 | 0.00 | 73 | 1014.2 |
| 20260905181500 | 85 | 263 | 4.0 | 11.0 | 0.00 | 0.00 | 0.00 | 73 | 1014.3 |
| 20260905181400 | 85 | 179 | 2.0 | 5.0 | 0.00 | 0.00 | 0.00 | 73 | 1014.3 |
| 20260905181001 | 85 | 249 | 4.0 | 8.0 | 0.00 | 0.00 | 0.00 | 73 | 1014.3 |
| 20260905180900 | 85 | 124 | 5.0 | 9.0 | 0.00 | 0.00 | 0.00 | 72 | 1014.3 |
| 20260905180700 | 85 | 154 | 6.0 | 9.0 | 0.00 | 0.00 | 0.00 | 75 | 1014.3 |
| 20260905180501 | 85 | 234 | 8.0 | 8.0 | 0.00 | 0.00 | 0.00 | 75 | 1014.3 |
| 20260905180401 | 85 | 281 | 5.0 | 10.0 | 0.00 | 0.00 | 0.00 | 74 | 1014.5 |
| 20260905180200 | 85 | 233 | 9.0 | 9.0 | 0.00 | 0.00 | 0.00 | 74 | 1014.5 |
| 20260905180000 | 85 | 265 | 1.0 | 9.0 | 0.00 | 0.00 | 0.00 | 74 | 1014.5 |
| 20260905175900 | 85 | 253 | 8.0 | 8.0 | 0.00 | 0.00 | 0.00 | 74 | 1014.6 |
| 20260905175801 | 86 | 154 | 8.0 | 12.0 | 0.00 | 0.00 | 0.00 | 74 | 1014.7 |
| 20260905175701 | 86 | 231 | 12.0 | 11.0 | 0.00 | 0.00 | 0.00 | 73 | 1014.7 |
| 20260905175601 | 86 | 250 | 7.0 | 7.0 | 0.00 | 0.00 | 0.00 | 72 | 1014.6 |
| 20260905175500 | 86 | 230 | 7.0 | 6.0 | 0.00 | 0.00 | 0.00 | 71 | 1014.7 |
| 20260905175200 | 86 | 282 | 4.0 | 5.0 | 0.00 | 0.00 | 0.00 | 72 | 1014.7 |
| 20260905175000 | 86 | 142 | 5.0 | 5.0 | 0.00 | 0.00 | 0.00 | 72 | 1014.7 |
| 20260905174901 | 86 | 161 | 3.0 | 7.0 | 0.00 | 0.00 | 0.00 | 72 | 1014.7 |
| 20260905174801 | 86 | 283 | 4.0 | 9.0 | 0.00 | 0.00 | 0.00 | 71 | 1014.8 |
| 20260905174701 | 86 | 192 | 5.0 | 8.0 | 0.00 | 0.00 | 0.00 | 71 | 1014.8 |
| 20260905174501 | 86 | 154 | 3.0 | 6.0 | 0.00 | 0.00 | 0.00 | 71 | 1014.8 |
| 20260905174301 | 85 | 174 | 6.0 | 6.0 | 0.00 | 0.00 | 0.00 | 74 | 1014.7 |
| 20260905174200 | 85 | 136 | 4.0 | 7.0 | 0.00 | 0.00 | 0.00 | 74 | 1014.9 |
| 20260905174100 | 85 | 157 | 6.0 | 9.0 | 0.00 | 0.00 | 0.00 | 74 | 1014.9 |
| 20260905174000 | 85 | 180 | 4.0 | 10.0 | 0.00 | 0.00 | 0.00 | 74 | 1014.9 |
| 20260905173801 | 85 | 246 | 2.0 | 8.0 | 0.00 | 0.00 | 0.00 | 74 | 1014.9 |
| 20260905173700 | 85 | 249 | 4.0 | 8.0 | 0.00 | 0.00 | 0.00 | 74 | 1014.9 |
| 20260905173500 | 84 | 240 | 5.0 | 6.0 | 0.00 | 0.00 | 0.00 | 75 | 1014.9 |
| 20260905173400 | 84 | 248 | 4.0 | 6.0 | 0.00 | 0.00 | 0.00 | 75 | 1014.9 |
| 20260905173300 | 84 | 189 | 2.0 | 10.0 | 0.00 | 0.00 | 0.00 | 75 | 1014.9 |
| 20260905173200 | 84 | 245 | 7.0 | 9.0 | 0.00 | 0.00 | 0.00 | 75 | 1015.0 |
| 20260905173101 | 84 | 250 | 6.0 | 8.0 | 0.00 | 0.00 | 0.00 | 76 | 1015.0 |
| 20260905173001 | 84 | 132 | 1.0 | 9.0 | 0.00 | 0.00 | 0.00 | 76 | 1015.0 |
| 20260905172900 | 84 | 267 | 6.0 | 8.0 | 0.00 | 0.00 | 0.00 | 77 | 1015.0 |
| 20260905172800 | 84 | 215 | 6.0 | 7.0 | 0.00 | 0.00 | 0.00 | 77 | 1015.0 |
| 20260905172700 | 84 | 256 | 4.0 | 7.0 | 0.00 | 0.00 | 0.00 | 77 | 1015.0 |
| 20260905172501 | 84 | 230 | 5.0 | 8.0 | 0.00 | 0.00 | 0.00 | 77 | 1015.0 |
| 20260905172400 | 84 | 263 | 7.0 | 9.0 | 0.00 | 0.00 | 0.00 | 77 | 1015.1 |
| 20260905172301 | 84 | 241 | 3.0 | 7.0 | 0.00 | 0.00 | 0.00 | 77 | 1015.1 |
| 20260905172100 | 84 | 206 | 2.0 | 10.0 | 0.00 | 0.00 | 0.00 | 77 | 1015.0 |
| 20260905172000 | 84 | 236 | 7.0 | 7.0 | 0.00 | 0.00 | 0.00 | 78 | 1014.9 |
| 20260905171901 | 84 | 289 | 6.0 | 7.0 | 0.00 | 0.00 | 0.00 | 77 | 1014.9 |
| 20260905171700 | 84 | 244 | 5.0 | 9.0 | 0.00 | 0.00 | 0.00 | 77 | 1015.0 |
| 20260905171600 | 83 | 187 | 9.0 | 8.0 | 0.00 | 0.00 | 0.00 | 78 | 1015.0 |
| 20260905171500 | 83 | 213 | 7.0 | 9.0 | 0.00 | 0.00 | 0.00 | 79 | 1015.0 |
| 20260905171400 | 83 | 305 | 2.0 | 7.0 | 0.00 | 0.00 | 0.00 | 79 | 1015.0 |
| 20260905171300 | 83 | 249 | 6.0 | 11.0 | 0.00 | 0.00 | 0.00 | 80 | 1015.0 |
| 20260905171101 | 83 | 188 | 8.0 | 9.0 | 0.00 | 0.00 | 0.00 | 81 | 1015.0 |
| 20260905171001 | 83 | 252 | 9.0 | 10.0 | 0.00 | 0.00 | 0.00 | 80 | 1015.0 |
| 20260905170901 | 83 | 234 | 6.0 | 10.0 | 0.00 | 0.00 | 0.00 | 79 | 1015.0 |
| 20260905170800 | 83 | 262 | 10.0 | 9.0 | 0.00 | 0.00 | 0.00 | 79 | 1015.0 |
| 20260905170700 | 83 | 262 | 9.0 | 10.0 | 0.00 | 0.00 | 0.00 | 80 | 1015.1 |
| 20260905170500 | 82 | 159 | 6.0 | 10.0 | 0.00 | 0.00 | 0.00 | 84 | 1015.1 |
| 20260905170400 | 82 | 230 | 4.0 | 10.0 | 0.00 | 0.00 | 0.00 | 83 | 1014.9 |
| 20260905170301 | 82 | 159 | 8.0 | 7.0 | 0.00 | 0.00 | 0.00 | 85 | 1015.0 |
| 20260905170100 | 81 | 248 | 6.0 | 7.0 | 0.00 | 0.00 | 0.00 | 84 | 1014.9 |
| 20260905170000 | 81 | 182 | 6.0 | 7.0 | 0.00 | 0.00 | 0.00 | 85 | 1014.9 |
| 20260905165801 | 81 | 160 | 6.0 | 8.0 | 0.00 | 0.00 | 0.00 | 85 | 1014.9 |
| 20260905165700 | 81 | 237 | 3.0 | 10.0 | 0.00 | 0.00 | 0.00 | 86 | 1014.9 |
| 20260905165600 | 81 | 281 | 7.0 | 8.0 | 0.00 | 0.00 | 0.00 | 86 | 1015.0 |
| 20260905165501 | 81 | 247 | 4.0 | 6.0 | 0.00 | 0.00 | 0.00 | 87 | 1015.0 |
| 20260905165400 | 81 | 266 | 4.0 | 9.0 | 0.00 | 0.00 | 0.00 | 86 | 1015.1 |
| 20260905165300 | 81 | 171 | 6.0 | 6.0 | 0.00 | 0.00 | 0.00 | 87 | 1015.1 |
| 20260905165101 | 81 | 229 | 4.0 | 8.0 | 0.00 | 0.00 | 0.00 | 89 | 1015.3 |
| 20260905165001 | 81 | 192 | 3.0 | 6.0 | 0.00 | 0.00 | 0.00 | 89 | 1015.4 |
| 20260905164901 | 81 | 150 | 4.0 | 6.0 | 0.00 | 0.00 | 0.00 | 87 | 1015.3 |
| 20260905164501 | 82 | 248 | 8.0 | 11.0 | 0.00 | 0.00 | 0.00 | 86 | 1015.3 |
| 20260905164400 | 82 | 245 | 8.0 | 7.0 | 0.00 | 0.00 | 0.00 | 85 | 1015.3 |
| 20260905164300 | 82 | 234 | 5.0 | 6.0 | 0.00 | 0.00 | 0.00 | 84 | 1015.3 |
| 20260905164200 | 82 | 194 | 7.0 | 6.0 | 0.00 | 0.00 | 0.00 | 84 | 1015.3 |
| 20260905164100 | 82 | 160 | 4.0 | 7.0 | 0.00 | 0.00 | 0.00 | 82 | 1015.4 |
| 20260905164000 | 82 | 216 | 5.0 | 9.0 | 0.00 | 0.00 | 0.00 | 80 | 1015.4 |
| 20260905163900 | 82 | 196 | 6.0 | 8.0 | 0.00 | 0.00 | 0.00 | 79 | 1015.4 |
| 20260905163800 | 82 | 265 | 4.0 | 8.0 | 0.00 | 0.00 | 0.00 | 79 | 1015.4 |
| 20260905163701 | 82 | 202 | 6.0 | 11.0 | 0.00 | 0.00 | 0.00 | 80 | 1015.5 |
| 20260905163601 | 82 | 240 | 4.0 | 11.0 | 0.00 | 0.00 | 0.00 | 80 | 1015.5 |
| 20260905163501 | 82 | 254 | 7.0 | 10.0 | 0.00 | 0.00 | 0.00 | 80 | 1015.5 |
| 20260905163400 | 82 | 234 | 4.0 | 10.0 | 0.00 | 0.00 | 0.00 | 80 | 1015.5 |
| 20260905163300 | 82 | 235 | 7.0 | 10.0 | 0.00 | 0.00 | 0.00 | 80 | 1015.7 |
| 20260905163200 | 82 | 215 | 6.0 | 10.0 | 0.00 | 0.00 | 0.00 | 79 | 1015.6 |
| 20260905163100 | 82 | 242 | 7.0 | 7.0 | 0.00 | 0.00 | 0.00 | 79 | 1015.7 |
| 20260905163000 | 82 | 270 | 4.0 | 7.0 | 0.00 | 0.00 | 0.00 | 79 | 1015.7 |
| 20260905162901 | 82 | 195 | 4.0 | 8.0 | 0.00 | 0.00 | 0.00 | 79 | 1015.6 |
| 20260905162601 | 82 | 248 | 4.0 | 4.0 | 0.00 | 0.00 | 0.00 | 80 | 1015.6 |
| 20260905162501 | 82 | 217 | 3.0 | 9.0 | 0.00 | 0.00 | 0.00 | 80 | 1015.6 |
| 20260905162400 | 82 | 244 | 4.0 | 8.0 | 0.00 | 0.00 | 0.00 | 80 | 1015.6 |
| 20260905162300 | 82 | 233 | 5.0 | 8.0 | 0.00 | 0.00 | 0.00 | 80 | 1015.7 |
| 20260905162100 | 82 | 145 | 3.0 | 8.0 | 0.00 | 0.00 | 0.00 | 80 | 1015.6 |
| 20260905162000 | 83 | 211 | 5.0 | 10.0 | 0.00 | 0.00 | 0.00 | 80 | 1015.7 |
| 20260905161900 | 83 | 190 | 2.0 | 9.0 | 0.00 | 0.00 | 0.00 | 80 | 1015.6 |
| 20260905161800 | 83 | 150 | 6.0 | 10.0 | 0.00 | 0.00 | 0.00 | 79 | 1015.6 |
| 20260905161700 | 83 | 207 | 6.0 | 11.0 | 0.00 | 0.00 | 0.00 | 78 | 1015.6 |
| 20260905161401 | 84 | 306 | 5.0 | 11.0 | 0.00 | 0.00 | 0.00 | 77 | 1015.6 |
| 20260905161301 | 84 | 291 | 5.0 | 6.0 | 0.00 | 0.00 | 0.00 | 77 | 1015.7 |
| 20260905161100 | 84 | 285 | 2.0 | 6.0 | 0.00 | 0.00 | 0.00 | 77 | 1015.6 |
| 20260905161000 | 84 | 257 | 4.0 | 9.0 | 0.00 | 0.00 | 0.00 | 77 | 1015.7 |
| 20260905160900 | 84 | 244 | 4.0 | 5.0 | 0.00 | 0.00 | 0.00 | 77 | 1015.7 |
| 20260905160800 | 84 | 149 | 3.0 | 9.0 | 0.00 | 0.00 | 0.00 | 77 | 1015.6 |
| 20260905160600 | 84 | 284 | 8.0 | 9.0 | 0.00 | 0.00 | 0.00 | 76 | 1015.5 |
| 20260905160500 | 84 | 255 | 5.0 | 10.0 | 0.00 | 0.00 | 0.00 | 75 | 1015.5 |
| 20260905160300 | 84 | 170 | 3.0 | 9.0 | 0.00 | 0.00 | 0.00 | 75 | 1015.6 |
| 20260905160200 | 84 | 188 | 3.0 | 8.0 | 0.00 | 0.00 | 0.00 | 74 | 1015.5 |
| 20260905160000 | 84 | 240 | 5.0 | 11.0 | 0.00 | 0.00 | 0.00 | 74 | 1015.5 |
| 20260905155901 | 84 | 197 | 6.0 | 9.0 | 0.00 | 0.00 | 0.00 | 76 | 1015.5 |
| 20260905155801 | 84 | 120 | 5.0 | 5.0 | 0.00 | 0.00 | 0.00 | 76 | 1015.5 |
| 20260905155700 | 84 | 256 | 3.0 | 10.0 | 0.00 | 0.00 | 0.00 | 76 | 1015.5 |
| 20260905155600 | 84 | 222 | 8.0 | 9.0 | 0.00 | 0.00 | 0.00 | 76 | 1015.5 |
| 20260905155501 | 84 | 222 | 4.0 | 8.0 | 0.00 | 0.00 | 0.00 | 76 | 1015.5 |
| 20260905155400 | 84 | 256 | 3.0 | 8.0 | 0.00 | 0.00 | 0.00 | 76 | 1015.5 |
| 20260905155300 | 84 | 194 | 7.0 | 8.0 | 0.00 | 0.00 | 0.00 | 76 | 1015.5 |
| 20260905155200 | 84 | 231 | 5.0 | 9.0 | 0.00 | 0.00 | 0.00 | 76 | 1015.5 |
| 20260905155100 | 84 | 263 | 9.0 | 7.0 | 0.00 | 0.00 | 0.00 | 76 | 1015.5 |
| 20260905155001 | 84 | 265 | 4.0 | 9.0 | 0.00 | 0.00 | 0.00 | 76 | 1015.5 |
| 20260905154900 | 85 | 274 | 5.0 | 9.0 | 0.00 | 0.00 | 0.00 | 76 | 1015.5 |
| 20260905154800 | 85 | 282 | 5.0 | 7.0 | 0.00 | 0.00 | 0.00 | 75 | 1015.5 |
| 20260905154700 | 85 | 267 | 6.0 | 8.0 | 0.00 | 0.00 | 0.00 | 75 | 1015.5 |
| 20260905154600 | 85 | 272 | 3.0 | 6.0 | 0.00 | 0.00 | 0.00 | 75 | 1015.4 |
| 20260905154501 | 85 | 262 | 4.0 | 6.0 | 0.00 | 0.00 | 0.00 | 75 | 1015.4 |
| 20260905154400 | 85 | 232 | 3.0 | 7.0 | 0.00 | 0.00 | 0.00 | 75 | 1015.4 |
| 20260905154300 | 85 | 195 | 2.0 | 10.0 | 0.00 | 0.00 | 0.00 | 75 | 1015.3 |
| 20260905154200 | 86 | 251 | 9.0 | 9.0 | 0.00 | 0.00 | 0.00 | 74 | 1015.3 |
| 20260905154001 | 86 | 267 | 7.0 | 10.0 | 0.00 | 0.00 | 0.00 | 73 | 1015.2 |
| 20260905153900 | 86 | 254 | 4.0 | 6.0 | 0.00 | 0.00 | 0.00 | 72 | 1015.1 |
| 20260905153800 | 86 | 155 | 2.0 | 6.0 | 0.00 | 0.00 | 0.00 | 72 | 1015.1 |
| 20260905153701 | 86 | 236 | 4.0 | 8.0 | 0.00 | 0.00 | 0.00 | 72 | 1015.1 |
| 20260905153601 | 86 | 247 | 6.0 | 7.0 | 0.00 | 0.00 | 0.00 | 72 | 1015.1 |
| 20260905153500 | 86 | 304 | 3.0 | 8.0 | 0.00 | 0.00 | 0.00 | 72 | 1015.1 |
| 20260905153201 | 87 | 277 | 5.0 | 7.0 | 0.00 | 0.00 | 0.00 | 71 | 1015.0 |
| 20260905153100 | 87 | 260 | 4.0 | 8.0 | 0.00 | 0.00 | 0.00 | 71 | 1015.0 |
| 20260905153000 | 87 | 282 | 4.0 | 7.0 | 0.00 | 0.00 | 0.00 | 71 | 1015.0 |
| 20260905152901 | 87 | 268 | 3.0 | 6.0 | 0.00 | 0.00 | 0.00 | 71 | 1015.0 |
| 20260905152800 | 87 | 29 | 2.0 | 7.0 | 0.00 | 0.00 | 0.00 | 71 | 1015.0 |
| 20260905152700 | 88 | 267 | 6.0 | 8.0 | 0.00 | 0.00 | 0.00 | 70 | 1015.0 |
| 20260905152500 | 88 | 233 | 6.0 | 8.0 | 0.00 | 0.00 | 0.00 | 70 | 1014.9 |
| 20260905152401 | 88 | 241 | 7.0 | 7.0 | 0.00 | 0.00 | 0.00 | 69 | 1014.8 |
| 20260905152300 | 89 | 255 | 5.0 | 6.0 | 0.00 | 0.00 | 0.00 | 69 | 1014.9 |
| 20260905152200 | 89 | 252 | 5.0 | 8.0 | 0.00 | 0.00 | 0.00 | 67 | 1014.8 |
| 20260905152001 | 89 | 349 | 4.0 | 3.0 | 0.00 | 0.00 | 0.00 | 66 | 1014.8 |
| 20260905151901 | 88 | 199 | 1.0 | 3.0 | 0.00 | 0.00 | 0.00 | 67 | 1014.8 |
| 20260905151801 | 88 | 154 | 2.0 | 4.0 | 0.00 | 0.00 | 0.00 | 67 | 1014.8 |
| 20260905151700 | 88 | 292 | 1.0 | 4.0 | 0.00 | 0.00 | 0.00 | 67 | 1014.8 |
| 20260905151600 | 88 | 280 | 2.0 | 4.0 | 0.00 | 0.00 | 0.00 | 67 | 1014.8 |
| 20260905151501 | 88 | 38 | 3.0 | 5.0 | 0.00 | 0.00 | 0.00 | 67 | 1014.8 |
| 20260905151301 | 88 | 7 | 4.0 | 5.0 | 0.00 | 0.00 | 0.00 | 68 | 1014.8 |
| 20260905151200 | 88 | 340 | 3.0 | 2.0 | 0.00 | 0.00 | 0.00 | 69 | 1014.9 |
| 20260905151001 | 88 | 319 | 2.0 | 6.0 | 0.00 | 0.00 | 0.00 | 68 | 1014.9 |
| 20260905150900 | 88 | 336 | 4.0 | 6.0 | 0.00 | 0.00 | 0.00 | 68 | 1014.9 |
| 20260905150800 | 88 | 289 | 3.0 | 3.0 | 0.00 | 0.00 | 0.00 | 68 | 1014.8 |
| 20260905150600 | 87 | 111 | 3.0 | 4.0 | 0.00 | 0.00 | 0.00 | 68 | 1014.8 |
| 20260905150500 | 87 | 253 | 4.0 | 4.0 | 0.00 | 0.00 | 0.00 | 68 | 1014.8 |
| 20260905150400 | 87 | 199 | 1.0 | 3.0 | 0.00 | 0.00 | 0.00 | 68 | 1014.8 |
| 20260905150300 | 87 | 208 | 0.0 | 3.0 | 0.00 | 0.00 | 0.00 | 68 | 1014.8 |
| 20260905150201 | 87 | 295 | 3.0 | 4.0 | 0.00 | 0.00 | 0.00 | 68 | 1014.9 |
| 20260905150101 | 87 | 350 | 4.0 | 2.0 | 0.00 | 0.00 | 0.00 | 67 | 1014.9 |
| 20260905150001 | 87 | 293 | 2.0 | 2.0 | 0.00 | 0.00 | 0.00 | 67 | 1014.9 |
| 20260905145900 | 87 | 233 | 2.0 | 3.0 | 0.00 | 0.00 | 0.00 | 67 | 1014.9 |
| 20260905145801 | 87 | 247 | 1.0 | 4.0 | 0.00 | 0.00 | 0.00 | 67 | 1014.9 |
| 20260905145700 | 87 | 344 | 3.0 | 3.0 | 0.00 | 0.00 | 0.00 | 67 | 1014.9 |
| 20260905145500 | 87 | 143 | 0.0 | 3.0 | 0.00 | 0.00 | 0.00 | 68 | 1014.8 |
| 20260905145400 | 87 | 143 | 2.0 | 6.0 | 0.00 | 0.00 | 0.00 | 68 | 1014.8 |
| 20260905145300 | 87 | 204 | 3.0 | 6.0 | 0.00 | 0.00 | 0.00 | 67 | 1014.8 |
| 20260905145200 | 87 | 141 | 4.0 | 2.0 | 0.00 | 0.00 | 0.00 | 68 | 1014.8 |
| 20260905145100 | 87 | 106 | 1.0 | 5.0 | 0.00 | 0.00 | 0.00 | 68 | 1014.8 |
| 20260905144901 | 87 | 302 | 1.0 | 2.0 | 0.00 | 0.00 | 0.00 | 68 | 1014.9 |
| 20260905144801 | 87 | 165 | 0.0 | 4.0 | 0.00 | 0.00 | 0.00 | 67 | 1014.9 |
| 20260905144701 | 87 | 258 | 1.0 | 3.0 | 0.00 | 0.00 | 0.00 | 68 | 1014.9 |
| 20260905144601 | 87 | 243 | 1.0 | 2.0 | 0.00 | 0.00 | 0.00 | 68 | 1014.9 |
| 20260905144400 | 86 | 69 | 0.0 | 3.0 | 0.00 | 0.00 | 0.00 | 68 | 1015.0 |
| 20260905144300 | 86 | 352 | 2.0 | 4.0 | 0.00 | 0.00 | 0.00 | 69 | 1015.0 |
| 20260905144200 | 86 | 10 | 1.0 | 3.0 | 0.00 | 0.00 | 0.00 | 68 | 1015.0 |
| 20260905144101 | 86 | 200 | 1.0 | 3.0 | 0.00 | 0.00 | 0.00 | 69 | 1014.9 |
| 20260905144000 | 86 | 301 | 1.0 | 3.0 | 0.00 | 0.00 | 0.00 | 69 | 1014.9 |
| 20260905143800 | 86 | 340 | 0.0 | 3.0 | 0.00 | 0.00 | 0.00 | 69 | 1014.9 |
| 20260905143700 | 86 | 267 | 1.0 | 3.0 | 0.00 | 0.00 | 0.00 | 69 | 1014.9 |
| 20260905143600 | 87 | 216 | 2.0 | 3.0 | 0.00 | 0.00 | 0.00 | 69 | 1014.9 |
| 20260905143501 | 87 | 281 | 1.0 | 3.0 | 0.00 | 0.00 | 0.00 | 69 | 1014.8 |
| 20260905143400 | 87 | 217 | 3.0 | 4.0 | 0.00 | 0.00 | 0.00 | 68 | 1014.9 |
| 20260905143300 | 87 | 266 | 4.0 | 5.0 | 0.00 | 0.00 | 0.00 | 68 | 1014.8 |
| 20260905143101 | 87 | 281 | 2.0 | 3.0 | 0.00 | 0.00 | 0.00 | 68 | 1014.8 |
| 20260905143000 | 87 | 280 | 1.0 | 3.0 | 0.00 | 0.00 | 0.00 | 68 | 1014.8 |
| 20260905142900 | 87 | 305 | 1.0 | 2.0 | 0.00 | 0.00 | 0.00 | 69 | 1014.9 |
| 20260905142601 | 87 | 232 | 1.0 | 3.0 | 0.00 | 0.00 | 0.00 | 68 | 1014.9 |
| 20260905142501 | 87 | 247 | 2.0 | 2.0 | 0.00 | 0.00 | 0.00 | 68 | 1014.9 |
| 20260905142301 | 86 | 262 | 2.0 | 2.0 | 0.00 | 0.00 | 0.00 | 69 | 1014.8 |
| 20260905142201 | 86 | 283 | 1.0 | 4.0 | 0.00 | 0.00 | 0.00 | 69 | 1014.8 |
| 20260905142100 | 86 | 49 | 4.0 | 5.0 | 0.00 | 0.00 | 0.00 | 68 | 1014.8 |
| 20260905142000 | 86 | 355 | 2.0 | 3.0 | 0.00 | 0.00 | 0.00 | 69 | 1014.8 |
| 20260905141900 | 86 | 0 | 2.0 | 3.0 | 0.00 | 0.00 | 0.00 | 69 | 1014.8 |
| 20260905141701 | 86 | 341 | 4.0 | 4.0 | 0.00 | 0.00 | 0.00 | 69 | 1014.7 |
| 20260905141601 | 85 | 11 | 3.0 | 4.0 | 0.00 | 0.00 | 0.00 | 70 | 1014.7 |
| 20260905141500 | 85 | 92 | 3.0 | 3.0 | 0.00 | 0.00 | 0.00 | 70 | 1014.7 |
| 20260905141401 | 85 | 44 | 2.0 | 3.0 | 0.00 | 0.00 | 0.00 | 71 | 1014.8 |
| 20260905141200 | 85 | 2 | 3.0 | 3.0 | 0.00 | 0.00 | 0.00 | 70 | 1014.8 |
| 20260905141000 | 85 | 219 | 1.0 | 2.0 | 0.00 | 0.00 | 0.00 | 71 | 1014.8 |
| 20260905140900 | 85 | 183 | 1.0 | 2.0 | 0.00 | 0.00 | 0.00 | 71 | 1014.9 |
| 20260905140701 | 84 | 51 | 1.0 | 4.0 | 0.00 | 0.00 | 0.00 | 73 | 1014.9 |
| 20260905140601 | 84 | 359 | 3.0 | 1.0 | 0.00 | 0.00 | 0.00 | 74 | 1014.9 |
| 20260905140500 | 84 | 308 | 0.0 | 2.0 | 0.00 | 0.00 | 0.00 | 74 | 1014.9 |
| 20260905140300 | 84 | 264 | 1.0 | 2.0 | 0.00 | 0.00 | 0.00 | 74 | 1014.9 |
| 20260905140100 | 84 | 321 | 0.0 | 1.0 | 0.00 | 0.00 | 0.00 | 74 | 1014.9 |
| 20260905140001 | 84 | 273 | 1.0 | 2.0 | 0.00 | 0.00 | 0.00 | 74 | 1014.9 |
| 20260905135900 | 84 | 240 | 0.0 | 2.0 | 0.00 | 0.00 | 0.00 | 74 | 1014.9 |
| 20260905135701 | 84 | 346 | 2.0 | 5.0 | 0.00 | 0.00 | 0.00 | 74 | 1014.9 |
| 20260905135601 | 84 | 355 | 4.0 | 5.0 | 0.00 | 0.00 | 0.00 | 73 | 1014.8 |
| 20260905135501 | 84 | 45 | 4.0 | 4.0 | 0.00 | 0.00 | 0.00 | 74 | 1014.9 |
| 20260905135401 | 84 | 56 | 3.0 | 2.0 | 0.00 | 0.00 | 0.00 | 75 | 1014.9 |
| 20260905135301 | 84 | 233 | 1.0 | 2.0 | 0.00 | 0.00 | 0.00 | 75 | 1014.9 |
| 20260905135200 | 84 | 277 | 1.0 | 3.0 | 0.00 | 0.00 | 0.00 | 75 | 1014.9 |
| 20260905135100 | 84 | 37 | 2.0 | 3.0 | 0.00 | 0.00 | 0.00 | 75 | 1014.8 |